| time (UTC) | temp F | wind direction | speed knots | gust knots | rain 1hr in | rain 24hr in | rain mn in | humidity % | barometer mb |
| 20260901231528 | 94 | 207 | 1.7 | 4.3 | 0.00 | 0.00 | 0.00 | 51 | 1016.9 |
| 20260901231435 | 94 | 221 | 1.7 | 4.3 | 0.00 | 0.00 | 0.00 | 51 | 1016.9 |
| 20260901231342 | 94 | 215 | 1.7 | 4.3 | 0.00 | 0.00 | 0.00 | 51 | 1017.0 |
| 20260901231226 | 94 | 213 | 2.6 | 4.3 | 0.00 | 0.00 | 0.00 | 52 | 1017.0 |
| 20260901231116 | 94 | 205 | 2.6 | 4.3 | 0.00 | 0.00 | 0.00 | 52 | 1016.9 |
| 20260901231023 | 94 | 219 | 2.6 | 4.3 | 0.00 | 0.00 | 0.00 | 52 | 1016.9 |
| 20260901230932 | 94 | 200 | 2.6 | 3.5 | 0.00 | 0.00 | 0.00 | 51 | 1016.9 |
| 20260901230818 | 94 | 209 | 2.6 | 3.5 | 0.00 | 0.00 | 0.00 | 52 | 1017.0 |
| 20260901230746 | 94 | 173 | 3.5 | 3.5 | 0.00 | 0.00 | 0.00 | 51 | 1016.9 |
| 20260901230631 | 94 | 194 | 2.6 | 3.5 | 0.00 | 0.00 | 0.00 | 52 | 1017.0 |
| 20260901230541 | 94 | 201 | 1.7 | 3.5 | 0.00 | 0.00 | 0.00 | 51 | 1017.0 |
| 20260901230426 | 94 | 209 | 1.7 | 3.5 | 0.00 | 0.00 | 0.00 | 51 | 1017.0 |
| 20260901230334 | 94 | 221 | 1.7 | 3.5 | 0.00 | 0.00 | 0.00 | 51 | 1017.0 |
| 20260901230304 | 94 | 196 | 1.7 | 3.5 | 0.00 | 0.00 | 0.00 | 51 | 1017.0 |
| 20260901230017 | 94 | 211 | 1.7 | 2.6 | 0.00 | 0.00 | 0.00 | 51 | 1017.0 |
| 20260901225929 | 94 | 227 | 0.9 | 2.6 | 0.00 | 0.00 | 0.00 | 50 | 1017.0 |
| 20260901225835 | 94 | 92 | 0.9 | 2.6 | 0.00 | 0.00 | 0.00 | 48 | 1016.9 |
| 20260901225740 | 94 | 155 | 0.9 | 2.6 | 0.00 | 0.00 | 0.00 | 48 | 1016.9 |
| 20260901225626 | 94 | 155 | 1.7 | 2.6 | 0.00 | 0.00 | 0.00 | 48 | 1016.9 |
| 20260901225533 | 94 | 155 | 1.7 | 2.6 | 0.00 | 0.00 | 0.00 | 47 | 1017.0 |
| 20260901225441 | 94 | 155 | 1.7 | 2.6 | 0.00 | 0.00 | 0.00 | 48 | 1016.9 |
| 20260901225330 | 94 | 117 | 0.9 | 2.6 | 0.00 | 0.00 | 0.00 | 49 | 1016.9 |
| 20260901225235 | 94 | 143 | 0.9 | 2.6 | 0.00 | 0.00 | 0.00 | 48 | 1016.9 |
| 20260901225122 | 95 | 66 | 0.9 | 2.6 | 0.00 | 0.00 | 0.00 | 49 | 1016.9 |
| 20260901225029 | 95 | 49 | 0.9 | 2.6 | 0.00 | 0.00 | 0.00 | 48 | 1017.0 |
| 20260901224957 | 95 | 78 | 1.7 | 2.6 | 0.00 | 0.00 | 0.00 | 48 | 1016.9 |
| 20260901224822 | 95 | 109 | 1.7 | 2.6 | 0.00 | 0.00 | 0.00 | 49 | 1016.9 |
| 20260901224756 | 95 | 109 | 1.7 | 2.6 | 0.00 | 0.00 | 0.00 | 49 | 1016.9 |
| 20260901224529 | 95 | 126 | 0.9 | 2.6 | 0.00 | 0.00 | 0.00 | 47 | 1016.9 |
| 20260901224418 | 95 | 130 | 0.9 | 2.6 | 0.00 | 0.00 | 0.00 | 47 | 1016.9 |
| 20260901224324 | 96 | 355 | 0.9 | 2.6 | 0.00 | 0.00 | 0.00 | 48 | 1016.9 |
| 20260901224230 | 96 | 88 | 0.9 | 2.6 | 0.00 | 0.00 | 0.00 | 47 | 1016.9 |
| 20260901224121 | 96 | 355 | 0.9 | 4.3 | 0.00 | 0.00 | 0.00 | 47 | 1016.9 |
| 20260901224028 | 96 | 355 | 0.9 | 4.3 | 0.00 | 0.00 | 0.00 | 47 | 1016.8 |
| 20260901223935 | 96 | 355 | 0.0 | 4.3 | 0.00 | 0.00 | 0.00 | 48 | 1016.9 |
| 20260901223843 | 96 | 355 | 0.9 | 4.3 | 0.00 | 0.00 | 0.00 | 47 | 1016.9 |
| 20260901223728 | 96 | 355 | 0.9 | 4.3 | 0.00 | 0.00 | 0.00 | 46 | 1016.9 |
| 20260901223618 | 96 | 355 | 1.7 | 4.3 | 0.00 | 0.00 | 0.00 | 46 | 1016.9 |
| 20260901223524 | 96 | 33 | 1.7 | 4.3 | 0.00 | 0.00 | 0.00 | 46 | 1016.8 |
| 20260901223432 | 96 | 33 | 1.7 | 4.3 | 0.00 | 0.00 | 0.00 | 47 | 1016.8 |
| 20260901223358 | 96 | 28 | 1.7 | 5.2 | 0.00 | 0.00 | 0.00 | 47 | 1016.8 |
| 20260901223309 | 96 | 39 | 1.7 | 5.2 | 0.00 | 0.00 | 0.00 | 47 | 1016.8 |
| 20260901223025 | 96 | 94 | 1.7 | 5.2 | 0.00 | 0.00 | 0.00 | 47 | 1016.8 |
| 20260901222931 | 96 | 40 | 1.7 | 5.2 | 0.00 | 0.00 | 0.00 | 48 | 1016.8 |
| 20260901222819 | 96 | 49 | 1.7 | 5.2 | 0.00 | 0.00 | 0.00 | 48 | 1016.8 |
| 20260901222728 | 96 | 88 | 1.7 | 5.2 | 0.00 | 0.00 | 0.00 | 48 | 1016.8 |
| 20260901222633 | 96 | 55 | 0.9 | 3.5 | 0.00 | 0.00 | 0.00 | 50 | 1016.7 |
| 20260901222519 | 96 | 57 | 1.7 | 3.5 | 0.00 | 0.00 | 0.00 | 48 | 1016.8 |
| 20260901222432 | 96 | 74 | 1.7 | 3.5 | 0.00 | 0.00 | 0.00 | 48 | 1016.7 |
| 20260901222318 | 95 | 355 | 1.7 | 3.5 | 0.00 | 0.00 | 0.00 | 47 | 1016.8 |
| 20260901222225 | 95 | 325 | 0.9 | 3.5 | 0.00 | 0.00 | 0.00 | 47 | 1016.8 |
| 20260901222131 | 95 | 355 | 0.9 | 3.5 | 0.00 | 0.00 | 0.00 | 47 | 1016.7 |
| 20260901222019 | 95 | 355 | 0.9 | 3.5 | 0.00 | 0.00 | 0.00 | 47 | 1016.7 |
| 20260901221929 | 95 | 355 | 0.9 | 3.5 | 0.00 | 0.00 | 0.00 | 46 | 1016.8 |
| 20260901221807 | 96 | 355 | 1.7 | 3.5 | 0.00 | 0.00 | 0.00 | 47 | 1016.8 |
| 20260901221540 | 96 | 34 | 1.7 | 3.5 | 0.00 | 0.00 | 0.00 | 47 | 1016.8 |
| 20260901221426 | 96 | 304 | 1.7 | 5.2 | 0.00 | 0.00 | 0.00 | 47 | 1016.7 |
| 20260901221317 | 96 | 343 | 0.9 | 5.2 | 0.00 | 0.00 | 0.00 | 46 | 1016.7 |
| 20260901221224 | 96 | 113 | 0.9 | 5.2 | 0.00 | 0.00 | 0.00 | 46 | 1016.8 |
| 20260901221150 | 96 | 113 | 1.7 | 5.2 | 0.00 | 0.00 | 0.00 | 46 | 1016.8 |
| 20260901221035 | 96 | 151 | 1.7 | 5.2 | 0.00 | 0.00 | 0.00 | 46 | 1016.7 |
| 20260901220942 | 96 | 190 | 0.9 | 5.2 | 0.00 | 0.00 | 0.00 | 46 | 1016.7 |
| 20260901220827 | 96 | 230 | 0.9 | 5.2 | 0.00 | 0.00 | 0.00 | 45 | 1016.7 |
| 20260901220716 | 96 | 82 | 2.6 | 5.2 | 0.00 | 0.00 | 0.00 | 46 | 1016.7 |
| 20260901220623 | 96 | 92 | 2.6 | 5.2 | 0.00 | 0.00 | 0.00 | 47 | 1016.7 |
| 20260901220532 | 96 | 80 | 2.6 | 4.3 | 0.00 | 0.00 | 0.00 | 46 | 1016.8 |
| 20260901220419 | 96 | 71 | 1.7 | 4.3 | 0.00 | 0.00 | 0.00 | 47 | 1016.7 |
| 20260901220346 | 96 | 132 | 1.7 | 4.3 | 0.00 | 0.00 | 0.00 | 48 | 1016.7 |
| 20260901220301 | 96 | 59 | 1.7 | 3.5 | 0.00 | 0.00 | 0.00 | 45 | 1016.7 |
| 20260901220033 | 96 | 157 | 0.9 | 3.5 | 0.00 | 0.00 | 0.00 | 46 | 1016.7 |
| 20260901215920 | 97 | 111 | 0.9 | 3.5 | 0.00 | 0.00 | 0.00 | 47 | 1016.8 |
| 20260901215828 | 97 | 111 | 1.7 | 3.5 | 0.00 | 0.00 | 0.00 | 45 | 1016.7 |
| 20260901215735 | 97 | 111 | 2.6 | 3.5 | 0.00 | 0.00 | 0.00 | 46 | 1016.8 |
| 20260901215622 | 97 | 74 | 2.6 | 3.5 | 0.00 | 0.00 | 0.00 | 48 | 1016.8 |
| 20260901215553 | 97 | 94 | 2.6 | 3.5 | 0.00 | 0.00 | 0.00 | 45 | 1016.8 |
| 20260901215418 | 97 | 55 | 2.6 | 4.3 | 0.00 | 0.00 | 0.00 | 45 | 1016.7 |
| 20260901215325 | 97 | 84 | 2.6 | 4.3 | 0.00 | 0.00 | 0.00 | 45 | 1016.7 |
| 20260901215232 | 97 | 84 | 2.6 | 5.2 | 0.00 | 0.00 | 0.00 | 46 | 1016.7 |
| 20260901215120 | 97 | 123 | 1.7 | 5.2 | 0.00 | 0.00 | 0.00 | 45 | 1016.8 |
| 20260901215027 | 97 | 140 | 2.6 | 5.2 | 0.00 | 0.00 | 0.00 | 44 | 1016.7 |
| 20260901214919 | 97 | 219 | 2.6 | 5.2 | 0.00 | 0.00 | 0.00 | 44 | 1016.7 |
| 20260901214826 | 97 | 207 | 2.6 | 5.2 | 0.00 | 0.00 | 0.00 | 45 | 1016.7 |
| 20260901214757 | 98 | 163 | 2.6 | 5.2 | 0.00 | 0.00 | 0.00 | 45 | 1016.7 |
| 20260901214529 | 98 | 71 | 2.6 | 7.0 | 0.00 | 0.00 | 0.00 | 44 | 1016.7 |
| 20260901214439 | 98 | 75 | 3.5 | 7.0 | 0.00 | 0.00 | 0.00 | 46 | 1016.7 |
| 20260901214325 | 98 | 15 | 3.5 | 7.0 | 0.00 | 0.00 | 0.00 | 46 | 1016.7 |
| 20260901214232 | 98 | 74 | 2.6 | 7.0 | 0.00 | 0.00 | 0.00 | 46 | 1016.7 |
| 20260901214118 | 98 | 360 | 2.6 | 7.0 | 0.00 | 0.00 | 0.00 | 47 | 1016.7 |
| 20260901214025 | 97 | 26 | 2.6 | 7.0 | 0.00 | 0.00 | 0.00 | 46 | 1016.7 |
| 20260901213934 | 97 | 5 | 3.5 | 7.0 | 0.00 | 0.00 | 0.00 | 47 | 1016.7 |
| 20260901213825 | 97 | 12 | 3.5 | 7.0 | 0.00 | 0.00 | 0.00 | 46 | 1016.7 |
| 20260901213732 | 97 | 15 | 3.5 | 5.2 | 0.00 | 0.00 | 0.00 | 46 | 1016.8 |
| 20260901213617 | 97 | 5 | 2.6 | 5.2 | 0.00 | 0.00 | 0.00 | 46 | 1016.7 |
| 20260901213545 | 97 | 34 | 2.6 | 5.2 | 0.00 | 0.00 | 0.00 | 46 | 1016.7 |
| 20260901213430 | 97 | 31 | 2.6 | 5.2 | 0.00 | 0.00 | 0.00 | 47 | 1016.7 |
| 20260901213317 | 97 | 30 | 3.5 | 5.2 | 0.00 | 0.00 | 0.00 | 47 | 1016.7 |
| 20260901213252 | 97 | 26 | 3.5 | 5.2 | 0.00 | 0.00 | 0.00 | 47 | 1016.7 |
| 20260901213025 | 97 | 30 | 3.5 | 6.1 | 0.00 | 0.00 | 0.00 | 46 | 1016.7 |
| 20260901212952 | 97 | 90 | 2.6 | 5.2 | 0.00 | 0.00 | 0.00 | 47 | 1016.7 |
| 20260901212819 | 97 | 5 | 2.6 | 5.2 | 0.00 | 0.00 | 0.00 | 46 | 1016.7 |
| 20260901212725 | 96 | 49 | 1.7 | 5.2 | 0.00 | 0.00 | 0.00 | 47 | 1016.8 |
| 20260901212635 | 96 | 331 | 0.9 | 5.2 | 0.00 | 0.00 | 0.00 | 47 | 1016.7 |
| 20260901212523 | 96 | 107 | 0.9 | 5.2 | 0.00 | 0.00 | 0.00 | 47 | 1016.8 |
| 20260901212429 | 96 | 81 | 0.9 | 5.2 | 0.00 | 0.00 | 0.00 | 46 | 1016.7 |
| 20260901212317 | 96 | 155 | 1.7 | 5.2 | 0.00 | 0.00 | 0.00 | 46 | 1016.9 |
| 20260901212226 | 96 | 80 | 2.6 | 5.2 | 0.00 | 0.00 | 0.00 | 47 | 1016.7 |
| 20260901212116 | 96 | 124 | 1.7 | 5.2 | 0.00 | 0.00 | 0.00 | 48 | 1016.8 |
| 20260901212023 | 96 | 130 | 1.7 | 5.2 | 0.00 | 0.00 | 0.00 | 47 | 1016.7 |
| 20260901211930 | 96 | 136 | 2.6 | 5.2 | 0.00 | 0.00 | 0.00 | 46 | 1016.8 |
| 20260901211837 | 96 | 64 | 2.6 | 5.2 | 0.00 | 0.00 | 0.00 | 48 | 1016.8 |
| 20260901211808 | 96 | 57 | 3.5 | 5.2 | 0.00 | 0.00 | 0.00 | 49 | 1016.8 |
| 20260901211525 | 96 | 138 | 1.7 | 4.3 | 0.00 | 0.00 | 0.00 | 49 | 1016.9 |
| 20260901211432 | 96 | 169 | 1.7 | 7.0 | 0.00 | 0.00 | 0.00 | 46 | 1016.8 |
| 20260901211318 | 96 | 191 | 1.7 | 7.0 | 0.00 | 0.00 | 0.00 | 47 | 1016.8 |
| 20260901211226 | 96 | 213 | 1.7 | 7.0 | 0.00 | 0.00 | 0.00 | 46 | 1016.8 |
| 20260901211133 | 96 | 126 | 1.7 | 7.0 | 0.00 | 0.00 | 0.00 | 46 | 1016.8 |
| 20260901211024 | 96 | 139 | 1.7 | 7.0 | 0.00 | 0.00 | 0.00 | 46 | 1016.8 |
| 20260901210932 | 95 | 345 | 2.6 | 7.0 | 0.00 | 0.00 | 0.00 | 46 | 1016.9 |
| 20260901210818 | 95 | 197 | 2.6 | 7.0 | 0.00 | 0.00 | 0.00 | 46 | 1016.8 |
| 20260901210726 | 95 | 190 | 3.5 | 7.0 | 0.00 | 0.00 | 0.00 | 48 | 1016.9 |
| 20260901210633 | 95 | 192 | 4.3 | 7.0 | 0.00 | 0.00 | 0.00 | 47 | 1017.0 |
| 20260901210520 | 95 | 140 | 3.5 | 6.1 | 0.00 | 0.00 | 0.00 | 48 | 1017.0 |
| 20260901210451 | 95 | 81 | 2.6 | 6.1 | 0.00 | 0.00 | 0.00 | 47 | 1017.0 |
| 20260901210357 | 96 | 121 | 1.7 | 6.1 | 0.00 | 0.00 | 0.00 | 46 | 1017.0 |
| 20260901210328 | 96 | 123 | 1.7 | 6.1 | 0.00 | 0.00 | 0.00 | 45 | 1016.9 |
| 20260901210040 | 96 | 65 | 1.7 | 6.1 | 0.00 | 0.00 | 0.00 | 46 | 1017.1 |
| 20260901205926 | 96 | 85 | 1.7 | 6.1 | 0.00 | 0.00 | 0.00 | 46 | 1017.0 |
| 20260901205853 | 96 | 80 | 2.6 | 7.0 | 0.00 | 0.00 | 0.00 | 46 | 1017.0 |
| 20260901205723 | 96 | 71 | 3.5 | 7.0 | 0.00 | 0.00 | 0.00 | 47 | 1017.1 |
| 20260901205631 | 96 | 112 | 3.5 | 7.0 | 0.00 | 0.00 | 0.00 | 46 | 1017.1 |
| 20260901205517 | 96 | 114 | 4.3 | 7.0 | 0.00 | 0.00 | 0.00 | 46 | 1017.1 |
| 20260901205424 | 96 | 123 | 4.3 | 7.0 | 0.00 | 0.00 | 0.00 | 46 | 1017.0 |
| 20260901205351 | 96 | 135 | 4.3 | 7.0 | 0.00 | 0.00 | 0.00 | 47 | 1017.1 |
| 20260901205216 | 96 | 156 | 4.3 | 7.0 | 0.00 | 0.00 | 0.00 | 47 | 1017.1 |
| 20260901205127 | 96 | 126 | 5.2 | 7.0 | 0.00 | 0.00 | 0.00 | 47 | 1017.2 |
| 20260901205034 | 96 | 121 | 4.3 | 7.0 | 0.00 | 0.00 | 0.00 | 47 | 1017.1 |
| 20260901204922 | 96 | 113 | 3.5 | 7.0 | 0.00 | 0.00 | 0.00 | 48 | 1017.1 |
| 20260901204849 | 96 | 74 | 2.6 | 7.0 | 0.00 | 0.00 | 0.00 | 47 | 1017.2 |
| 20260901204756 | 96 | 103 | 2.6 | 6.1 | 0.00 | 0.00 | 0.00 | 47 | 1017.2 |
| 20260901204528 | 96 | 140 | 1.7 | 4.3 | 0.00 | 0.00 | 0.00 | 48 | 1017.1 |
| 20260901204435 | 96 | 145 | 2.6 | 4.3 | 0.00 | 0.00 | 0.00 | 46 | 1017.1 |
| 20260901204323 | 96 | 165 | 2.6 | 7.0 | 0.00 | 0.00 | 0.00 | 47 | 1017.2 |
| 20260901204229 | 95 | 158 | 1.7 | 7.0 | 0.00 | 0.00 | 0.00 | 47 | 1017.1 |
| 20260901204116 | 95 | 236 | 1.7 | 7.0 | 0.00 | 0.00 | 0.00 | 47 | 1017.1 |
| 20260901204024 | 95 | 211 | 1.7 | 7.0 | 0.00 | 0.00 | 0.00 | 47 | 1017.2 |
| 20260901203934 | 95 | 190 | 2.6 | 7.0 | 0.00 | 0.00 | 0.00 | 47 | 1017.2 |
| 20260901203821 | 95 | 206 | 3.5 | 7.0 | 0.00 | 0.00 | 0.00 | 47 | 1017.2 |
| 20260901203728 | 95 | 215 | 3.5 | 7.0 | 0.00 | 0.00 | 0.00 | 47 | 1017.3 |
| 20260901203633 | 95 | 195 | 3.5 | 7.0 | 0.00 | 0.00 | 0.00 | 47 | 1017.2 |
| 20260901203522 | 96 | 133 | 3.5 | 7.0 | 0.00 | 0.00 | 0.00 | 48 | 1017.3 |
| 20260901203433 | 96 | 120 | 2.6 | 7.0 | 0.00 | 0.00 | 0.00 | 46 | 1017.2 |
| 20260901203320 | 96 | 126 | 2.6 | 7.0 | 0.00 | 0.00 | 0.00 | 46 | 1017.2 |
| 20260901203250 | 96 | 124 | 2.6 | 10.4 | 0.00 | 0.00 | 0.00 | 46 | 1017.4 |
| 20260901203043 | 96 | 273 | 1.7 | 10.4 | 0.00 | 0.00 | 0.00 | 47 | 1017.4 |
| 20260901202929 | 96 | 113 | 1.7 | 10.4 | 0.00 | 0.00 | 0.00 | 50 | 1017.3 |
| 20260901202820 | 96 | 159 | 3.5 | 10.4 | 0.00 | 0.00 | 0.00 | 48 | 1017.4 |
| 20260901202726 | 96 | 84 | 4.3 | 10.4 | 0.00 | 0.00 | 0.00 | 47 | 1017.4 |
| 20260901202653 | 96 | 150 | 3.5 | 10.4 | 0.00 | 0.00 | 0.00 | 47 | 1017.4 |
| 20260901202517 | 96 | 175 | 3.5 | 10.4 | 0.00 | 0.00 | 0.00 | 47 | 1017.5 |
| 20260901202424 | 96 | 115 | 6.1 | 10.4 | 0.00 | 0.00 | 0.00 | 46 | 1017.5 |
| 20260901202331 | 96 | 128 | 7.0 | 10.4 | 0.00 | 0.00 | 0.00 | 47 | 1017.4 |
| 20260901202223 | 96 | 105 | 6.1 | 8.7 | 0.00 | 0.00 | 0.00 | 48 | 1017.4 |
| 20260901202131 | 96 | 107 | 3.5 | 8.7 | 0.00 | 0.00 | 0.00 | 46 | 1017.5 |
| 20260901202038 | 96 | 161 | 1.7 | 7.0 | 0.00 | 0.00 | 0.00 | 47 | 1017.5 |
| 20260901201923 | 96 | 187 | 2.6 | 7.0 | 0.00 | 0.00 | 0.00 | 47 | 1017.5 |
| 20260901201830 | 96 | 149 | 3.5 | 7.0 | 0.00 | 0.00 | 0.00 | 47 | 1017.6 |
| 20260901201805 | 96 | 115 | 3.5 | 7.0 | 0.00 | 0.00 | 0.00 | 47 | 1017.6 |
| 20260901201517 | 96 | 182 | 3.5 | 7.0 | 0.00 | 0.00 | 0.00 | 46 | 1017.5 |
| 20260901201424 | 96 | 167 | 3.5 | 7.0 | 0.00 | 0.00 | 0.00 | 46 | 1017.5 |
| 20260901201331 | 96 | 186 | 3.5 | 7.0 | 0.00 | 0.00 | 0.00 | 45 | 1017.5 |
| 20260901201218 | 96 | 214 | 5.2 | 7.0 | 0.00 | 0.00 | 0.00 | 45 | 1017.5 |
| 20260901201129 | 96 | 121 | 4.3 | 7.0 | 0.00 | 0.00 | 0.00 | 47 | 1017.6 |
| 20260901201016 | 96 | 169 | 3.5 | 7.0 | 0.00 | 0.00 | 0.00 | 44 | 1017.5 |
| 20260901200922 | 96 | 190 | 4.3 | 7.0 | 0.00 | 0.00 | 0.00 | 45 | 1017.5 |
| 20260901200831 | 96 | 158 | 3.5 | 7.0 | 0.00 | 0.00 | 0.00 | 44 | 1017.6 |
| 20260901200738 | 96 | 202 | 2.6 | 7.0 | 0.00 | 0.00 | 0.00 | 45 | 1017.6 |
| 20260901200623 | 96 | 200 | 3.5 | 7.0 | 0.00 | 0.00 | 0.00 | 45 | 1017.6 |
| 20260901200551 | 96 | 158 | 3.5 | 7.0 | 0.00 | 0.00 | 0.00 | 47 | 1017.5 |
| 20260901200422 | 96 | 126 | 2.6 | 6.1 | 0.00 | 0.00 | 0.00 | 47 | 1017.6 |
| 20260901200329 | 96 | 150 | 2.6 | 6.1 | 0.00 | 0.00 | 0.00 | 45 | 1017.5 |
| 20260901200259 | 96 | 167 | 2.6 | 4.3 | 0.00 | 0.00 | 0.00 | 45 | 1017.5 |
| 20260901200032 | 96 | 28 | 2.6 | 4.3 | 0.00 | 0.00 | 0.00 | 47 | 1017.6 |
| 20260901195944 | 97 | 47 | 1.7 | 4.3 | 0.00 | 0.00 | 0.00 | 46 | 1017.6 |
| 20260901195831 | 97 | 40 | 0.9 | 4.3 | 0.00 | 0.00 | 0.00 | 46 | 1017.7 |
| 20260901195717 | 97 | 88 | 0.9 | 4.3 | 0.00 | 0.00 | 0.00 | 46 | 1017.7 |
| 20260901195623 | 97 | 88 | 0.9 | 4.3 | 0.00 | 0.00 | 0.00 | 47 | 1017.7 |
| 20260901195529 | 97 | 360 | 1.7 | 4.3 | 0.00 | 0.00 | 0.00 | 49 | 1017.7 |
| 20260901195417 | 96 | 31 | 0.9 | 4.3 | 0.00 | 0.00 | 0.00 | 47 | 1017.7 |
| 20260901195329 | 96 | 329 | 0.9 | 5.2 | 0.00 | 0.00 | 0.00 | 47 | 1017.7 |
| 20260901195235 | 96 | 315 | 0.9 | 7.0 | 0.00 | 0.00 | 0.00 | 48 | 1017.7 |
| 20260901195122 | 96 | 226 | 0.9 | 7.0 | 0.00 | 0.00 | 0.00 | 47 | 1017.7 |
| 20260901195030 | 96 | 267 | 1.7 | 7.0 | 0.00 | 0.00 | 0.00 | 48 | 1017.8 |
| 20260901194939 | 96 | 277 | 0.9 | 7.0 | 0.00 | 0.00 | 0.00 | 47 | 1017.7 |
| 20260901194905 | 96 | 35 | 1.7 | 7.0 | 0.00 | 0.00 | 0.00 | 47 | 1017.8 |
| 20260901194818 | 96 | 350 | 2.6 | 7.0 | 0.00 | 0.00 | 0.00 | 50 | 1017.8 |
| 20260901194530 | 96 | 311 | 3.5 | 7.0 | 0.00 | 0.00 | 0.00 | 50 | 1017.8 |
| 20260901194417 | 96 | 329 | 4.3 | 7.0 | 0.00 | 0.00 | 0.00 | 50 | 1017.9 |
| 20260901194323 | 96 | 309 | 2.6 | 5.2 | 0.00 | 0.00 | 0.00 | 49 | 1017.9 |
| 20260901194250 | 95 | 5 | 1.7 | 5.2 | 0.00 | 0.00 | 0.00 | 48 | 1017.9 |
| 20260901194121 | 95 | 338 | 1.7 | 4.3 | 0.00 | 0.00 | 0.00 | 47 | 1017.9 |
| 20260901194048 | 95 | 338 | 2.6 | 4.3 | 0.00 | 0.00 | 0.00 | 47 | 1017.9 |
| 20260901193935 | 95 | 23 | 3.5 | 4.3 | 0.00 | 0.00 | 0.00 | 48 | 1017.9 |
| 20260901193841 | 95 | 295 | 2.6 | 5.2 | 0.00 | 0.00 | 0.00 | 48 | 1017.9 |
| 20260901193727 | 95 | 296 | 1.7 | 3.5 | 0.00 | 0.00 | 0.00 | 48 | 1017.9 |
| 20260901193634 | 95 | 203 | 1.7 | 3.5 | 0.00 | 0.00 | 0.00 | 48 | 1018.0 |
| 20260901193524 | 95 | 317 | 1.7 | 4.3 | 0.00 | 0.00 | 0.00 | 49 | 1017.9 |
| 20260901193430 | 95 | 286 | 1.7 | 6.1 | 0.00 | 0.00 | 0.00 | 51 | 1017.9 |
| 20260901193357 | 95 | 274 | 1.7 | 7.0 | 0.00 | 0.00 | 0.00 | 50 | 1017.9 |
| 20260901193306 | 95 | 277 | 0.9 | 9.6 | 0.00 | 0.00 | 0.00 | 50 | 1017.9 |
| 20260901193019 | 95 | 107 | 0.9 | 9.6 | 0.00 | 0.00 | 0.00 | 50 | 1018.0 |
| 20260901192931 | 95 | 140 | 0.9 | 9.6 | 0.00 | 0.00 | 0.00 | 50 | 1018.1 |
| 20260901192817 | 95 | 162 | 2.6 | 9.6 | 0.00 | 0.00 | 0.00 | 49 | 1018.1 |
| 20260901192724 | 95 | 127 | 4.3 | 9.6 | 0.00 | 0.00 | 0.00 | 48 | 1018.1 |
| 20260901192632 | 95 | 128 | 5.2 | 9.6 | 0.00 | 0.00 | 0.00 | 50 | 1018.1 |
| 20260901192519 | 95 | 117 | 7.0 | 9.6 | 0.00 | 0.00 | 0.00 | 49 | 1018.1 |
| 20260901192426 | 95 | 110 | 7.8 | 9.6 | 0.00 | 0.00 | 0.00 | 50 | 1018.0 |
| 20260901192318 | 95 | 117 | 6.1 | 9.6 | 0.00 | 0.00 | 0.00 | 50 | 1018.1 |
| 20260901192223 | 96 | 133 | 6.1 | 9.6 | 0.00 | 0.00 | 0.00 | 49 | 1018.0 |
| 20260901192131 | 96 | 171 | 6.1 | 9.6 | 0.00 | 0.00 | 0.00 | 50 | 1018.1 |
| 20260901192017 | 96 | 116 | 3.5 | 9.6 | 0.00 | 0.00 | 0.00 | 51 | 1018.0 |
| 20260901191924 | 95 | 112 | 1.7 | 8.7 | 0.00 | 0.00 | 0.00 | 50 | 1018.1 |
| 20260901191836 | 95 | 105 | 1.7 | 8.7 | 0.00 | 0.00 | 0.00 | 48 | 1018.1 |
| 20260901191805 | 95 | 132 | 0.9 | 8.7 | 0.00 | 0.00 | 0.00 | 49 | 1018.1 |
| 20260901191516 | 95 | 355 | 2.6 | 8.7 | 0.00 | 0.00 | 0.00 | 50 | 1018.1 |
| 20260901191424 | 95 | 26 | 2.6 | 8.7 | 0.00 | 0.00 | 0.00 | 50 | 1018.1 |
| 20260901191330 | 95 | 338 | 2.6 | 8.7 | 0.00 | 0.00 | 0.00 | 48 | 1018.1 |
| 20260901191222 | 95 | 346 | 3.5 | 8.7 | 0.00 | 0.00 | 0.00 | 48 | 1018.2 |
| 20260901191148 | 95 | 334 | 4.3 | 8.7 | 0.00 | 0.00 | 0.00 | 50 | 1018.2 |
| 20260901191033 | 95 | 355 | 3.5 | 6.1 | 0.00 | 0.00 | 0.00 | 49 | 1018.2 |
| 20260901190942 | 95 | 83 | 3.5 | 6.1 | 0.00 | 0.00 | 0.00 | 49 | 1018.3 |
| 20260901190828 | 95 | 5 | 2.6 | 6.1 | 0.00 | 0.00 | 0.00 | 49 | 1018.3 |
| 20260901190734 | 95 | 44 | 1.7 | 6.1 | 0.00 | 0.00 | 0.00 | 49 | 1018.3 |
| 20260901190626 | 95 | 148 | 2.6 | 6.1 | 0.00 | 0.00 | 0.00 | 49 | 1018.2 |
| 20260901190533 | 95 | 56 | 3.5 | 6.1 | 0.00 | 0.00 | 0.00 | 50 | 1018.4 |
| 20260901190420 | 95 | 75 | 2.6 | 7.0 | 0.00 | 0.00 | 0.00 | 50 | 1018.3 |
| 20260901190347 | 95 | 61 | 1.7 | 7.0 | 0.00 | 0.00 | 0.00 | 50 | 1018.3 |
| 20260901190317 | 95 | 105 | 1.7 | 7.0 | 0.00 | 0.00 | 0.00 | 49 | 1018.3 |
| 20260901190054 | 95 | 124 | 2.6 | 7.0 | 0.00 | 0.00 | 0.00 | 47 | 1018.4 |
| 20260901185919 | 95 | 132 | 2.6 | 7.0 | 0.00 | 0.00 | 0.00 | 49 | 1018.4 |
| 20260901185826 | 95 | 39 | 2.6 | 7.0 | 0.00 | 0.00 | 0.00 | 49 | 1018.4 |
| 20260901185733 | 95 | 69 | 4.3 | 7.0 | 0.00 | 0.00 | 0.00 | 52 | 1018.4 |
| 20260901185619 | 95 | 138 | 2.6 | 7.0 | 0.00 | 0.00 | 0.00 | 50 | 1018.4 |
| 20260901185526 | 95 | 148 | 1.7 | 7.0 | 0.00 | 0.00 | 0.00 | 49 | 1018.3 |
| 20260901185417 | 95 | 103 | 3.5 | 7.0 | 0.00 | 0.00 | 0.00 | 52 | 1018.4 |
| 20260901185323 | 95 | 112 | 4.3 | 7.0 | 0.00 | 0.00 | 0.00 | 48 | 1018.4 |
| 20260901185230 | 95 | 131 | 3.5 | 7.0 | 0.00 | 0.00 | 0.00 | 47 | 1018.5 |
| 20260901185117 | 95 | 103 | 3.5 | 6.1 | 0.00 | 0.00 | 0.00 | 49 | 1018.5 |
| 20260901185025 | 95 | 87 | 2.6 | 6.1 | 0.00 | 0.00 | 0.00 | 50 | 1018.4 |
| 20260901184952 | 95 | 44 | 2.6 | 6.1 | 0.00 | 0.00 | 0.00 | 49 | 1018.5 |
| 20260901184842 | 95 | 76 | 2.6 | 6.1 | 0.00 | 0.00 | 0.00 | 48 | 1018.5 |
| 20260901184750 | 95 | 70 | 2.6 | 7.0 | 0.00 | 0.00 | 0.00 | 51 | 1018.5 |
| 20260901184522 | 95 | 177 | 2.6 | 7.0 | 0.00 | 0.00 | 0.00 | 51 | 1018.5 |
| 20260901184429 | 95 | 113 | 3.5 | 7.0 | 0.00 | 0.00 | 0.00 | 47 | 1018.5 |
| 20260901184320 | 95 | 186 | 3.5 | 7.0 | 0.00 | 0.00 | 0.00 | 50 | 1018.5 |
| 20260901184227 | 95 | 161 | 3.5 | 7.0 | 0.00 | 0.00 | 0.00 | 52 | 1018.6 |
| 20260901184133 | 95 | 94 | 2.6 | 6.1 | 0.00 | 0.00 | 0.00 | 49 | 1018.6 |
| 20260901184020 | 95 | 142 | 2.6 | 6.1 | 0.00 | 0.00 | 0.00 | 52 | 1018.6 |
| 20260901183949 | 95 | 163 | 2.6 | 6.1 | 0.00 | 0.00 | 0.00 | 52 | 1018.6 |
| 20260901183833 | 94 | 130 | 1.7 | 6.1 | 0.00 | 0.00 | 0.00 | 51 | 1018.6 |
| 20260901183726 | 94 | 159 | 0.9 | 3.5 | 0.00 | 0.00 | 0.00 | 50 | 1018.6 |
| 20260901183634 | 94 | 258 | 0.9 | 3.5 | 0.00 | 0.00 | 0.00 | 50 | 1018.6 |
| 20260901183520 | 94 | 355 | 1.7 | 3.5 | 0.00 | 0.00 | 0.00 | 50 | 1018.6 |
| 20260901183429 | 94 | 55 | 0.9 | 3.5 | 0.00 | 0.00 | 0.00 | 51 | 1018.7 |
| 20260901183336 | 94 | 80 | 0.9 | 3.5 | 0.00 | 0.00 | 0.00 | 52 | 1018.7 |
| 20260901183309 | 94 | 80 | 0.9 | 3.5 | 0.00 | 0.00 | 0.00 | 50 | 1018.7 |
| 20260901183023 | 94 | 158 | 0.9 | 5.2 | 0.00 | 0.00 | 0.00 | 50 | 1018.7 |
| 20260901182930 | 94 | 158 | 1.7 | 5.2 | 0.00 | 0.00 | 0.00 | 49 | 1018.7 |
| 20260901182816 | 94 | 118 | 1.7 | 5.2 | 0.00 | 0.00 | 0.00 | 51 | 1018.8 |
| 20260901182722 | 94 | 94 | 0.9 | 5.2 | 0.00 | 0.00 | 0.00 | 49 | 1018.7 |
| 20260901182648 | 94 | 132 | 0.9 | 5.2 | 0.00 | 0.00 | 0.00 | 50 | 1018.8 |
| 20260901182539 | 94 | 84 | 1.7 | 5.2 | 0.00 | 0.00 | 0.00 | 49 | 1018.8 |
| 20260901182425 | 94 | 61 | 1.7 | 5.2 | 0.00 | 0.00 | 0.00 | 49 | 1018.8 |
| 20260901182353 | 94 | 45 | 1.7 | 5.2 | 0.00 | 0.00 | 0.00 | 51 | 1018.8 |
| 20260901182219 | 94 | 44 | 2.6 | 5.2 | 0.00 | 0.00 | 0.00 | 51 | 1018.9 |
| 20260901182126 | 94 | 30 | 0.9 | 5.2 | 0.00 | 0.00 | 0.00 | 53 | 1018.9 |
| 20260901182053 | 94 | 122 | 0.9 | 5.2 | 0.00 | 0.00 | 0.00 | 50 | 1018.9 |
| 20260901181923 | 94 | 128 | 1.7 | 5.2 | 0.00 | 0.00 | 0.00 | 52 | 1018.9 |
| 20260901181831 | 94 | 140 | 1.7 | 7.0 | 0.00 | 0.00 | 0.00 | 51 | 1018.9 |
| 20260901181802 | 94 | 139 | 2.6 | 7.0 | 0.00 | 0.00 | 0.00 | 51 | 1018.9 |
| 20260901181535 | 94 | 88 | 2.6 | 7.0 | 0.00 | 0.00 | 0.00 | 52 | 1018.9 |
| 20260901181424 | 94 | 80 | 2.6 | 7.0 | 0.00 | 0.00 | 0.00 | 53 | 1018.9 |
| 20260901181334 | 94 | 43 | 3.5 | 7.0 | 0.00 | 0.00 | 0.00 | 51 | 1018.9 |
| 20260901181220 | 94 | 16 | 3.5 | 7.0 | 0.00 | 0.00 | 0.00 | 52 | 1019.0 |
| 20260901181127 | 94 | 30 | 3.5 | 7.0 | 0.00 | 0.00 | 0.00 | 52 | 1018.9 |
| 20260901181035 | 94 | 38 | 2.6 | 7.0 | 0.00 | 0.00 | 0.00 | 51 | 1018.9 |
| 20260901180923 | 94 | 84 | 2.6 | 6.1 | 0.00 | 0.00 | 0.00 | 52 | 1018.9 |
| 20260901180849 | 94 | 132 | 1.7 | 6.1 | 0.00 | 0.00 | 0.00 | 54 | 1018.9 |
| 20260901180718 | 94 | 108 | 0.9 | 5.2 | 0.00 | 0.00 | 0.00 | 50 | 1019.0 |
| 20260901180626 | 93 | 222 | 2.6 | 5.2 | 0.00 | 0.00 | 0.00 | 50 | 1019.0 |
| 20260901180533 | 93 | 205 | 2.6 | 7.0 | 0.00 | 0.00 | 0.00 | 50 | 1019.1 |
| 20260901180419 | 93 | 171 | 2.6 | 7.0 | 0.00 | 0.00 | 0.00 | 52 | 1018.9 |
| 20260901180326 | 93 | 157 | 2.6 | 7.0 | 0.00 | 0.00 | 0.00 | 50 | 1019.0 |
| 20260901180301 | 93 | 89 | 2.6 | 7.0 | 0.00 | 0.00 | 0.00 | 50 | 1019.0 |
| 20260901180034 | 93 | 148 | 2.6 | 7.0 | 0.00 | 0.00 | 0.00 | 51 | 1019.1 |
| 20260901175922 | 93 | 188 | 3.5 | 7.0 | 0.00 | 0.00 | 0.00 | 52 | 1019.1 |
| 20260901175829 | 94 | 120 | 4.3 | 7.0 | 0.00 | 0.00 | 0.00 | 53 | 1019.1 |
| 20260901175735 | 94 | 150 | 4.3 | 7.0 | 0.00 | 0.00 | 0.00 | 51 | 1019.1 |
| 20260901175627 | 94 | 150 | 3.5 | 6.1 | 0.00 | 0.00 | 0.00 | 52 | 1019.0 |
| 20260901175532 | 94 | 147 | 2.6 | 6.1 | 0.00 | 0.00 | 0.00 | 52 | 1019.0 |
| 20260901175419 | 94 | 137 | 2.6 | 6.1 | 0.00 | 0.00 | 0.00 | 52 | 1019.1 |
| 20260901175326 | 94 | 144 | 2.6 | 5.2 | 0.00 | 0.00 | 0.00 | 55 | 1019.0 |
| 20260901175232 | 94 | 157 | 1.7 | 5.2 | 0.00 | 0.00 | 0.00 | 52 | 1019.0 |
| 20260901175124 | 94 | 22 | 2.6 | 5.2 | 0.00 | 0.00 | 0.00 | 51 | 1019.1 |
| 20260901175032 | 94 | 72 | 3.5 | 5.2 | 0.00 | 0.00 | 0.00 | 53 | 1019.1 |
| 20260901174919 | 94 | 49 | 2.6 | 5.2 | 0.00 | 0.00 | 0.00 | 52 | 1019.1 |
| 20260901174846 | 94 | 65 | 2.6 | 5.2 | 0.00 | 0.00 | 0.00 | 52 | 1019.2 |
| 20260901174756 | 94 | 113 | 2.6 | 5.2 | 0.00 | 0.00 | 0.00 | 52 | 1019.2 |
| 20260901174534 | 94 | 92 | 3.5 | 6.1 | 0.00 | 0.00 | 0.00 | 55 | 1019.1 |
| 20260901174421 | 94 | 36 | 3.5 | 6.1 | 0.00 | 0.00 | 0.00 | 54 | 1019.2 |
| 20260901174348 | 94 | 136 | 3.5 | 5.2 | 0.00 | 0.00 | 0.00 | 56 | 1019.2 |
| 20260901174234 | 94 | 138 | 3.5 | 5.2 | 0.00 | 0.00 | 0.00 | 56 | 1019.2 |
| 20260901174121 | 94 | 148 | 1.7 | 5.2 | 0.00 | 0.00 | 0.00 | 55 | 1019.2 |
| 20260901174028 | 94 | 109 | 0.9 | 5.2 | 0.00 | 0.00 | 0.00 | 53 | 1019.2 |
| 20260901173918 | 94 | 28 | 1.7 | 5.2 | 0.00 | 0.00 | 0.00 | 56 | 1019.2 |
| 20260901173824 | 94 | 23 | 1.7 | 5.2 | 0.00 | 0.00 | 0.00 | 57 | 1019.3 |
| 20260901173731 | 94 | 39 | 1.7 | 4.3 | 0.00 | 0.00 | 0.00 | 56 | 1019.2 |
| 20260901173617 | 94 | 58 | 2.6 | 4.3 | 0.00 | 0.00 | 0.00 | 59 | 1019.2 |
| 20260901173546 | 94 | 19 | 1.7 | 4.3 | 0.00 | 0.00 | 0.00 | 57 | 1019.3 |
| 20260901173432 | 94 | 143 | 1.7 | 4.3 | 0.00 | 0.00 | 0.00 | 55 | 1019.2 |
| 20260901173318 | 93 | 355 | 1.7 | 4.3 | 0.00 | 0.00 | 0.00 | 54 | 1019.3 |
| 20260901173254 | 93 | 355 | 1.7 | 4.3 | 0.00 | 0.00 | 0.00 | 54 | 1019.3 |
| 20260901173026 | 93 | 5 | 0.0 | 2.6 | 0.00 | 0.00 | 0.00 | 56 | 1019.2 |
| 20260901172954 | 93 | 5 | 0.9 | 2.6 | 0.00 | 0.00 | 0.00 | 55 | 1019.2 |
| 20260901172819 | 93 | 5 | 0.9 | 3.5 | 0.00 | 0.00 | 0.00 | 55 | 1019.3 |
| 20260901172726 | 93 | 302 | 0.9 | 3.5 | 0.00 | 0.00 | 0.00 | 56 | 1019.2 |
| 20260901172616 | 93 | 237 | 1.7 | 3.5 | 0.00 | 0.00 | 0.00 | 57 | 1019.2 |
| 20260901172523 | 93 | 257 | 1.7 | 3.5 | 0.00 | 0.00 | 0.00 | 56 | 1019.3 |
| 20260901172430 | 93 | 271 | 1.7 | 3.5 | 0.00 | 0.00 | 0.00 | 56 | 1019.3 |
| 20260901172316 | 93 | 281 | 1.7 | 3.5 | 0.00 | 0.00 | 0.00 | 55 | 1019.4 |
| 20260901172222 | 93 | 281 | 1.7 | 3.5 | 0.00 | 0.00 | 0.00 | 56 | 1019.3 |
| 20260901172134 | 93 | 275 | 1.7 | 4.3 | 0.00 | 0.00 | 0.00 | 56 | 1019.4 |
| 20260901172022 | 93 | 244 | 1.7 | 4.3 | 0.00 | 0.00 | 0.00 | 57 | 1019.3 |
| 20260901171948 | 92 | 194 | 1.7 | 4.3 | 0.00 | 0.00 | 0.00 | 59 | 1019.4 |
| 20260901171836 | 92 | 186 | 1.7 | 4.3 | 0.00 | 0.00 | 0.00 | 57 | 1019.4 |
| 20260901171806 | 92 | 196 | 1.7 | 4.3 | 0.00 | 0.00 | 0.00 | 57 | 1019.4 |
| 20260901171522 | 92 | 5 | 2.6 | 4.3 | 0.00 | 0.00 | 0.00 | 59 | 1019.5 |
| 20260901171431 | 92 | 17 | 2.6 | 4.3 | 0.00 | 0.00 | 0.00 | 58 | 1019.4 |
| 20260901171317 | 92 | 345 | 2.6 | 4.3 | 0.00 | 0.00 | 0.00 | 58 | 1019.5 |
| 20260901171243 | 91 | 340 | 2.6 | 4.3 | 0.00 | 0.00 | 0.00 | 58 | 1019.5 |
| 20260901171130 | 91 | 18 | 2.6 | 4.3 | 0.00 | 0.00 | 0.00 | 59 | 1019.5 |
| 20260901171016 | 91 | 5 | 3.5 | 4.3 | 0.00 | 0.00 | 0.00 | 60 | 1019.5 |
| 20260901170929 | 91 | 17 | 2.6 | 4.3 | 0.00 | 0.00 | 0.00 | 60 | 1019.5 |
| 20260901170856 | 91 | 11 | 2.6 | 4.3 | 0.00 | 0.00 | 0.00 | 58 | 1019.5 |
| 20260901170742 | 91 | 355 | 2.6 | 4.3 | 0.00 | 0.00 | 0.00 | 59 | 1019.6 |
| 20260901170626 | 91 | 336 | 2.6 | 4.3 | 0.00 | 0.00 | 0.00 | 59 | 1019.5 |
| 20260901170555 | 91 | 329 | 2.6 | 4.3 | 0.00 | 0.00 | 0.00 | 58 | 1019.5 |
| 20260901170420 | 91 | 317 | 2.6 | 4.3 | 0.00 | 0.00 | 0.00 | 58 | 1019.6 |
| 20260901170348 | 91 | 321 | 2.6 | 4.3 | 0.00 | 0.00 | 0.00 | 59 | 1019.6 |
| 20260901170301 | 91 | 333 | 2.6 | 4.3 | 0.00 | 0.00 | 0.00 | 59 | 1019.6 |
| 20260901170035 | 91 | 346 | 2.6 | 4.3 | 0.00 | 0.00 | 0.00 | 59 | 1019.5 |
| 20260901165922 | 91 | 355 | 2.6 | 4.3 | 0.00 | 0.00 | 0.00 | 58 | 1019.6 |
| 20260901165851 | 91 | 360 | 2.6 | 4.3 | 0.00 | 0.00 | 0.00 | 59 | 1019.7 |
| 20260901165716 | 91 | 348 | 2.6 | 4.3 | 0.00 | 0.00 | 0.00 | 59 | 1019.6 |
| 20260901165627 | 91 | 331 | 2.6 | 4.3 | 0.00 | 0.00 | 0.00 | 59 | 1019.6 |
| 20260901165534 | 91 | 355 | 1.7 | 4.3 | 0.00 | 0.00 | 0.00 | 58 | 1019.6 |
| 20260901165420 | 91 | 297 | 1.7 | 4.3 | 0.00 | 0.00 | 0.00 | 58 | 1019.6 |
| 20260901165346 | 91 | 48 | 2.6 | 4.3 | 0.00 | 0.00 | 0.00 | 57 | 1019.7 |
| 20260901165231 | 91 | 15 | 1.7 | 4.3 | 0.00 | 0.00 | 0.00 | 58 | 1019.7 |
| 20260901165117 | 91 | 355 | 0.9 | 4.3 | 0.00 | 0.00 | 0.00 | 56 | 1019.6 |
| 20260901165028 | 92 | 192 | 0.9 | 3.5 | 0.00 | 0.00 | 0.00 | 55 | 1019.7 |
| 20260901164935 | 92 | 192 | 0.9 | 3.5 | 0.00 | 0.00 | 0.00 | 55 | 1019.7 |
| 20260901164821 | 92 | 192 | 1.7 | 5.2 | 0.00 | 0.00 | 0.00 | 55 | 1019.8 |
| 20260901164752 | 92 | 192 | 1.7 | 5.2 | 0.00 | 0.00 | 0.00 | 55 | 1019.8 |
| 20260901164529 | 92 | 166 | 2.6 | 5.2 | 0.00 | 0.00 | 0.00 | 53 | 1019.7 |
| 20260901164435 | 92 | 219 | 2.6 | 5.2 | 0.00 | 0.00 | 0.00 | 53 | 1019.7 |
| 20260901164321 | 92 | 254 | 1.7 | 5.2 | 0.00 | 0.00 | 0.00 | 53 | 1019.7 |
| 20260901164228 | 92 | 239 | 1.7 | 5.2 | 0.00 | 0.00 | 0.00 | 53 | 1019.6 |
| 20260901164135 | 93 | 229 | 1.7 | 5.2 | 0.00 | 0.00 | 0.00 | 53 | 1019.6 |
| 20260901164021 | 93 | 204 | 1.7 | 5.2 | 0.00 | 0.00 | 0.00 | 57 | 1019.6 |
| 20260901163954 | 93 | 285 | 1.7 | 6.1 | 0.00 | 0.00 | 0.00 | 55 | 1019.6 |
| 20260901163819 | 93 | 241 | 2.6 | 6.1 | 0.00 | 0.00 | 0.00 | 56 | 1019.7 |
| 20260901163726 | 93 | 251 | 2.6 | 6.1 | 0.00 | 0.00 | 0.00 | 55 | 1019.6 |
| 20260901163633 | 93 | 229 | 2.6 | 6.1 | 0.00 | 0.00 | 0.00 | 55 | 1019.6 |
| 20260901163518 | 93 | 216 | 2.6 | 6.1 | 0.00 | 0.00 | 0.00 | 55 | 1019.6 |
| 20260901163427 | 93 | 223 | 2.6 | 6.1 | 0.00 | 0.00 | 0.00 | 57 | 1019.6 |
| 20260901163338 | 94 | 214 | 3.5 | 6.1 | 0.00 | 0.00 | 0.00 | 57 | 1019.6 |
| 20260901163308 | 94 | 228 | 3.5 | 6.1 | 0.00 | 0.00 | 0.00 | 57 | 1019.6 |
| 20260901163021 | 94 | 265 | 3.5 | 6.1 | 0.00 | 0.00 | 0.00 | 58 | 1019.6 |
| 20260901162929 | 93 | 277 | 2.6 | 5.2 | 0.00 | 0.00 | 0.00 | 57 | 1019.6 |
| 20260901162840 | 93 | 283 | 1.7 | 5.2 | 0.00 | 0.00 | 0.00 | 59 | 1019.6 |
| 20260901162726 | 93 | 324 | 1.7 | 5.2 | 0.00 | 0.00 | 0.00 | 58 | 1019.8 |
| 20260901162632 | 93 | 323 | 1.7 | 5.2 | 0.00 | 0.00 | 0.00 | 59 | 1019.8 |
| 20260901162517 | 93 | 333 | 1.7 | 5.2 | 0.00 | 0.00 | 0.00 | 58 | 1019.8 |
| 20260901162443 | 93 | 86 | 2.6 | 5.2 | 0.00 | 0.00 | 0.00 | 58 | 1019.7 |
| 20260901162329 | 93 | 35 | 2.6 | 5.2 | 0.00 | 0.00 | 0.00 | 58 | 1019.7 |
| 20260901162217 | 93 | 42 | 1.7 | 3.5 | 0.00 | 0.00 | 0.00 | 58 | 1019.8 |
| 20260901162130 | 93 | 23 | 2.6 | 3.5 | 0.00 | 0.00 | 0.00 | 58 | 1019.8 |
| 20260901162018 | 93 | 28 | 2.6 | 3.5 | 0.00 | 0.00 | 0.00 | 59 | 1019.9 |
| 20260901161927 | 93 | 9 | 1.7 | 3.5 | 0.00 | 0.00 | 0.00 | 59 | 1019.9 |
| 20260901161854 | 93 | 320 | 1.7 | 3.5 | 0.00 | 0.00 | 0.00 | 59 | 1019.9 |
| 20260901161825 | 93 | 304 | 0.9 | 3.5 | 0.00 | 0.00 | 0.00 | 59 | 1019.9 |
| 20260901161521 | 92 | 326 | 0.9 | 3.5 | 0.00 | 0.00 | 0.00 | 57 | 1019.9 |
| 20260901161429 | 92 | 326 | 0.9 | 3.5 | 0.00 | 0.00 | 0.00 | 59 | 1019.9 |
| 20260901161337 | 92 | 325 | 1.7 | 3.5 | 0.00 | 0.00 | 0.00 | 58 | 1019.9 |
| 20260901161223 | 92 | 325 | 1.7 | 4.3 | 0.00 | 0.00 | 0.00 | 58 | 1019.8 |
| 20260901161129 | 92 | 250 | 0.9 | 4.3 | 0.00 | 0.00 | 0.00 | 60 | 1019.9 |
| 20260901161055 | 92 | 279 | 0.9 | 4.3 | 0.00 | 0.00 | 0.00 | 59 | 1019.9 |
| 20260901160924 | 92 | 146 | 0.9 | 4.3 | 0.00 | 0.00 | 0.00 | 58 | 1019.9 |
| 20260901160831 | 92 | 269 | 0.9 | 4.3 | 0.00 | 0.00 | 0.00 | 60 | 1019.9 |
| 20260901160719 | 92 | 271 | 1.7 | 4.3 | 0.00 | 0.00 | 0.00 | 60 | 1019.9 |
| 20260901160624 | 92 | 263 | 2.6 | 4.3 | 0.00 | 0.00 | 0.00 | 61 | 1019.9 |
| 20260901160533 | 92 | 232 | 2.6 | 4.3 | 0.00 | 0.00 | 0.00 | 61 | 1019.9 |
| 20260901160440 | 92 | 262 | 2.6 | 4.3 | 0.00 | 0.00 | 0.00 | 61 | 1019.9 |
| 20260901160411 | 92 | 257 | 2.6 | 5.2 | 0.00 | 0.00 | 0.00 | 61 | 1019.9 |
| 20260901160320 | 92 | 314 | 1.7 | 3.5 | 0.00 | 0.00 | 0.00 | 61 | 1019.9 |
| 20260901160052 | 92 | 348 | 2.6 | 3.5 | 0.00 | 0.00 | 0.00 | 62 | 1020.0 |
| 20260901155918 | 92 | 5 | 1.7 | 3.5 | 0.00 | 0.00 | 0.00 | 59 | 1020.0 |
| 20260901155844 | 92 | 355 | 0.9 | 3.5 | 0.00 | 0.00 | 0.00 | 61 | 1020.0 |
| 20260901155730 | 92 | 86 | 1.7 | 3.5 | 0.00 | 0.00 | 0.00 | 60 | 1020.0 |
| 20260901155622 | 92 | 115 | 1.7 | 3.5 | 0.00 | 0.00 | 0.00 | 59 | 1020.1 |
| 20260901155528 | 92 | 115 | 0.9 | 3.5 | 0.00 | 0.00 | 0.00 | 60 | 1020.1 |
| 20260901155434 | 92 | 148 | 0.9 | 3.5 | 0.00 | 0.00 | 0.00 | 60 | 1020.1 |
| 20260901155321 | 92 | 236 | 0.0 | 3.5 | 0.00 | 0.00 | 0.00 | 60 | 1020.1 |
| 20260901155229 | 92 | 236 | 0.9 | 3.5 | 0.00 | 0.00 | 0.00 | 60 | 1020.1 |
| 20260901155120 | 92 | 236 | 0.9 | 3.5 | 0.00 | 0.00 | 0.00 | 60 | 1020.1 |
| 20260901155048 | 92 | 236 | 1.7 | 3.5 | 0.00 | 0.00 | 0.00 | 62 | 1020.1 |
| 20260901154933 | 91 | 281 | 1.7 | 3.5 | 0.00 | 0.00 | 0.00 | 63 | 1020.1 |
| 20260901154900 | 91 | 236 | 1.7 | 3.5 | 0.00 | 0.00 | 0.00 | 61 | 1020.1 |
| 20260901154830 | 91 | 225 | 0.9 | 3.5 | 0.00 | 0.00 | 0.00 | 62 | 1020.2 |
| 20260901154521 | 91 | 303 | 1.7 | 3.5 | 0.00 | 0.00 | 0.00 | 61 | 1020.2 |
| 20260901154433 | 91 | 303 | 1.7 | 6.1 | 0.00 | 0.00 | 0.00 | 63 | 1020.1 |
| 20260901154319 | 91 | 211 | 1.7 | 6.1 | 0.00 | 0.00 | 0.00 | 63 | 1020.1 |
| 20260901154226 | 91 | 186 | 2.6 | 6.1 | 0.00 | 0.00 | 0.00 | 63 | 1020.2 |
| 20260901154132 | 91 | 223 | 1.7 | 6.1 | 0.00 | 0.00 | 0.00 | 62 | 1020.1 |
| 20260901154018 | 91 | 235 | 1.7 | 6.1 | 0.00 | 0.00 | 0.00 | 62 | 1020.2 |
| 20260901153929 | 91 | 173 | 1.7 | 6.1 | 0.00 | 0.00 | 0.00 | 61 | 1020.2 |
| 20260901153837 | 91 | 228 | 1.7 | 6.1 | 0.00 | 0.00 | 0.00 | 62 | 1020.2 |
| 20260901153743 | 91 | 223 | 1.7 | 6.1 | 0.00 | 0.00 | 0.00 | 61 | 1020.1 |
| 20260901153629 | 91 | 223 | 1.7 | 6.1 | 0.00 | 0.00 | 0.00 | 61 | 1020.2 |
| 20260901153535 | 91 | 236 | 2.6 | 6.1 | 0.00 | 0.00 | 0.00 | 61 | 1020.2 |
| 20260901153420 | 91 | 309 | 2.6 | 6.1 | 0.00 | 0.00 | 0.00 | 61 | 1020.2 |
| 20260901153327 | 91 | 270 | 2.6 | 6.1 | 0.00 | 0.00 | 0.00 | 62 | 1020.2 |
| 20260901153301 | 91 | 251 | 2.6 | 6.1 | 0.00 | 0.00 | 0.00 | 62 | 1020.2 |
| 20260901153033 | 91 | 242 | 2.6 | 6.1 | 0.00 | 0.00 | 0.00 | 62 | 1020.1 |
| 20260901152919 | 91 | 280 | 2.6 | 6.1 | 0.00 | 0.00 | 0.00 | 63 | 1020.1 |
| 20260901152825 | 91 | 179 | 3.5 | 6.1 | 0.00 | 0.00 | 0.00 | 62 | 1020.2 |
| 20260901152753 | 91 | 167 | 2.6 | 6.1 | 0.00 | 0.00 | 0.00 | 63 | 1020.2 |
| 20260901152620 | 91 | 155 | 2.6 | 3.5 | 0.00 | 0.00 | 0.00 | 64 | 1020.2 |
| 20260901152548 | 91 | 122 | 1.7 | 3.5 | 0.00 | 0.00 | 0.00 | 62 | 1020.2 |
| 20260901152454 | 91 | 130 | 1.7 | 3.5 | 0.00 | 0.00 | 0.00 | 62 | 1020.2 |
| 20260901152319 | 91 | 275 | 1.7 | 3.5 | 0.00 | 0.00 | 0.00 | 63 | 1020.2 |
| 20260901152225 | 91 | 302 | 1.7 | 3.5 | 0.00 | 0.00 | 0.00 | 64 | 1020.2 |
| 20260901152133 | 91 | 312 | 0.9 | 3.5 | 0.00 | 0.00 | 0.00 | 63 | 1020.2 |
| 20260901152018 | 91 | 314 | 1.7 | 3.5 | 0.00 | 0.00 | 0.00 | 63 | 1020.2 |
| 20260901151930 | 91 | 314 | 1.7 | 3.5 | 0.00 | 0.00 | 0.00 | 64 | 1020.1 |
| 20260901151859 | 91 | 293 | 1.7 | 3.5 | 0.00 | 0.00 | 0.00 | 63 | 1020.1 |
| 20260901151809 | 91 | 294 | 1.7 | 3.5 | 0.00 | 0.00 | 0.00 | 64 | 1020.1 |
| 20260901151521 | 90 | 338 | 1.7 | 3.5 | 0.00 | 0.00 | 0.00 | 64 | 1020.2 |
| 20260901151428 | 90 | 336 | 1.7 | 3.5 | 0.00 | 0.00 | 0.00 | 64 | 1020.2 |
| 20260901151339 | 90 | 296 | 0.9 | 3.5 | 0.00 | 0.00 | 0.00 | 63 | 1020.2 |
| 20260901151225 | 90 | 200 | 0.9 | 3.5 | 0.00 | 0.00 | 0.00 | 63 | 1020.2 |
| 20260901151153 | 90 | 200 | 1.7 | 3.5 | 0.00 | 0.00 | 0.00 | 64 | 1020.2 |
| 20260901151038 | 90 | 180 | 1.7 | 7.0 | 0.00 | 0.00 | 0.00 | 64 | 1020.2 |
| 20260901150923 | 90 | 220 | 0.9 | 7.0 | 0.00 | 0.00 | 0.00 | 64 | 1020.2 |
| 20260901150830 | 90 | 227 | 0.9 | 7.0 | 0.00 | 0.00 | 0.00 | 64 | 1020.3 |
| 20260901150721 | 90 | 227 | 1.7 | 7.0 | 0.00 | 0.00 | 0.00 | 64 | 1020.3 |
| 20260901150628 | 90 | 281 | 1.7 | 7.0 | 0.00 | 0.00 | 0.00 | 63 | 1020.2 |
| 20260901150535 | 90 | 209 | 1.7 | 7.0 | 0.00 | 0.00 | 0.00 | 65 | 1020.2 |
| 20260901150422 | 90 | 209 | 3.5 | 7.0 | 0.00 | 0.00 | 0.00 | 64 | 1020.1 |
| 20260901150329 | 90 | 264 | 3.5 | 7.0 | 0.00 | 0.00 | 0.00 | 65 | 1020.0 |
| 20260901150303 | 90 | 232 | 3.5 | 7.8 | 0.00 | 0.00 | 0.00 | 65 | 1020.0 |
| 20260901150035 | 90 | 142 | 1.7 | 4.3 | 0.00 | 0.00 | 0.00 | 65 | 1020.1 |
| 20260901145923 | 90 | 325 | 0.9 | 4.3 | 0.00 | 0.00 | 0.00 | 64 | 1020.1 |
| 20260901145830 | 90 | 224 | 0.9 | 4.3 | 0.00 | 0.00 | 0.00 | 63 | 1020.1 |
| 20260901145717 | 90 | 255 | 0.9 | 4.3 | 0.00 | 0.00 | 0.00 | 63 | 1020.1 |
| 20260901145628 | 90 | 317 | 1.7 | 4.3 | 0.00 | 0.00 | 0.00 | 65 | 1020.1 |
| 20260901145516 | 90 | 188 | 2.6 | 4.3 | 0.00 | 0.00 | 0.00 | 63 | 1020.1 |
| 20260901145444 | 90 | 211 | 2.6 | 4.3 | 0.00 | 0.00 | 0.00 | 64 | 1020.0 |
| 20260901145329 | 90 | 215 | 1.7 | 4.3 | 0.00 | 0.00 | 0.00 | 65 | 1020.1 |
| 20260901145217 | 89 | 161 | 0.9 | 3.5 | 0.00 | 0.00 | 0.00 | 64 | 1020.1 |
| 20260901145144 | 89 | 207 | 0.9 | 3.5 | 0.00 | 0.00 | 0.00 | 65 | 1020.1 |
| 20260901145049 | 89 | 214 | 1.7 | 6.1 | 0.00 | 0.00 | 0.00 | 66 | 1020.1 |
| 20260901142035 | 88 | 22 | 1.7 | 3.5 | 0.00 | 0.00 | 0.00 | 69 | 1020.2 |
| 20260901141942 | 88 | 5 | 1.7 | 3.5 | 0.00 | 0.00 | 0.00 | 68 | 1020.1 |
| 20260901141912 | 88 | 17 | 1.7 | 3.5 | 0.00 | 0.00 | 0.00 | 68 | 1020.1 |
| 20260901141623 | 87 | 119 | 1.7 | 3.5 | 0.00 | 0.00 | 0.00 | 69 | 1020.3 |
| 20260901141533 | 87 | 120 | 1.7 | 3.5 | 0.00 | 0.00 | 0.00 | 69 | 1020.3 |
| 20260901141439 | 87 | 44 | 1.7 | 3.5 | 0.00 | 0.00 | 0.00 | 69 | 1020.3 |
| 20260901141325 | 87 | 76 | 1.7 | 3.5 | 0.00 | 0.00 | 0.00 | 71 | 1020.3 |
| 20260901141232 | 87 | 65 | 1.7 | 3.5 | 0.00 | 0.00 | 0.00 | 70 | 1020.3 |
| 20260901141139 | 87 | 78 | 1.7 | 2.6 | 0.00 | 0.00 | 0.00 | 71 | 1020.3 |
| 20260901141029 | 87 | 110 | 0.9 | 2.6 | 0.00 | 0.00 | 0.00 | 71 | 1020.3 |
| 20260901140936 | 87 | 61 | 0.0 | 2.6 | 0.00 | 0.00 | 0.00 | 71 | 1020.2 |
| 20260901140823 | 87 | 91 | 0.9 | 2.6 | 0.00 | 0.00 | 0.00 | 71 | 1020.2 |
| 20260901140731 | 87 | 26 | 0.9 | 2.6 | 0.00 | 0.00 | 0.00 | 71 | 1020.2 |
| 20260901140638 | 87 | 33 | 0.9 | 2.6 | 0.00 | 0.00 | 0.00 | 72 | 1020.2 |
| 20260901140525 | 86 | 33 | 0.9 | 2.6 | 0.00 | 0.00 | 0.00 | 71 | 1020.3 |
| 20260901140437 | 86 | 59 | 0.9 | 2.6 | 0.00 | 0.00 | 0.00 | 72 | 1020.2 |
| 20260901140406 | 86 | 59 | 0.0 | 2.6 | 0.00 | 0.00 | 0.00 | 71 | 1020.2 |
| 20260901140139 | 86 | 76 | 0.9 | 2.6 | 0.00 | 0.00 | 0.00 | 72 | 1020.2 |
| 20260901140045 | 86 | 76 | 0.9 | 2.6 | 0.00 | 0.00 | 0.00 | 72 | 1020.1 |
| 20260901135931 | 86 | 76 | 1.7 | 2.6 | 0.00 | 0.00 | 0.00 | 73 | 1020.1 |
| 20260901135821 | 86 | 137 | 0.9 | 2.6 | 0.00 | 0.00 | 0.00 | 74 | 1020.1 |
| 20260901135727 | 86 | 92 | 0.9 | 2.6 | 0.00 | 0.00 | 0.00 | 73 | 1020.1 |
| 20260901135635 | 86 | 149 | 0.9 | 3.5 | 0.00 | 0.00 | 0.00 | 72 | 1020.1 |
| 20260901135521 | 85 | 121 | 0.0 | 3.5 | 0.00 | 0.00 | 0.00 | 72 | 1020.1 |
| 20260901135427 | 85 | 136 | 0.0 | 3.5 | 0.00 | 0.00 | 0.00 | 72 | 1020.1 |
| 20260901135333 | 85 | 136 | 0.0 | 3.5 | 0.00 | 0.00 | 0.00 | 72 | 1020.1 |
| 20260901135224 | 85 | 136 | 0.9 | 3.5 | 0.00 | 0.00 | 0.00 | 73 | 1020.1 |
| 20260901135131 | 85 | 136 | 0.9 | 3.5 | 0.00 | 0.00 | 0.00 | 73 | 1020.0 |
| 20260901135038 | 85 | 93 | 1.7 | 3.5 | 0.00 | 0.00 | 0.00 | 73 | 1020.1 |
| 20260901134924 | 85 | 128 | 0.9 | 3.5 | 0.00 | 0.00 | 0.00 | 73 | 1020.0 |
| 20260901134858 | 85 | 94 | 0.9 | 3.5 | 0.00 | 0.00 | 0.00 | 73 | 1020.0 |
| 20260901134632 | 85 | 24 | 0.9 | 2.6 | 0.00 | 0.00 | 0.00 | 75 | 1020.1 |
| 20260901134539 | 85 | 60 | 0.9 | 2.6 | 0.00 | 0.00 | 0.00 | 75 | 1019.9 |
| 20260901134426 | 85 | 38 | 0.9 | 2.6 | 0.00 | 0.00 | 0.00 | 74 | 1019.9 |
| 20260901134332 | 85 | 38 | 0.9 | 2.6 | 0.00 | 0.00 | 0.00 | 75 | 1019.8 |
| 20260901134224 | 84 | 37 | 1.7 | 2.6 | 0.00 | 0.00 | 0.00 | 75 | 1019.9 |
| 20260901134130 | 84 | 50 | 1.7 | 2.6 | 0.00 | 0.00 | 0.00 | 74 | 1019.9 |
| 20260901134059 | 84 | 58 | 0.9 | 2.6 | 0.00 | 0.00 | 0.00 | 74 | 1019.9 |
| 20260901133927 | 84 | 59 | 0.0 | 2.6 | 0.00 | 0.00 | 0.00 | 74 | 1019.9 |
| 20260901133833 | 84 | 109 | 0.0 | 2.6 | 0.00 | 0.00 | 0.00 | 74 | 1019.9 |
| 20260901133721 | 84 | 109 | 0.9 | 2.6 | 0.00 | 0.00 | 0.00 | 74 | 1019.9 |
| 20260901133627 | 84 | 109 | 1.7 | 2.6 | 0.00 | 0.00 | 0.00 | 74 | 1019.8 |
| 20260901133538 | 84 | 109 | 1.7 | 2.6 | 0.00 | 0.00 | 0.00 | 75 | 1019.9 |
| 20260901133425 | 84 | 107 | 0.9 | 2.6 | 0.00 | 0.00 | 0.00 | 75 | 1019.9 |
| 20260901133356 | 84 | 123 | 0.9 | 2.6 | 0.00 | 0.00 | 0.00 | 75 | 1019.9 |
| 20260901133130 | 84 | 105 | 0.9 | 2.6 | 0.00 | 0.00 | 0.00 | 74 | 1019.8 |
| 20260901133022 | 84 | 85 | 0.9 | 2.6 | 0.00 | 0.00 | 0.00 | 74 | 1019.8 |
| 20260901132929 | 84 | 85 | 0.9 | 2.6 | 0.00 | 0.00 | 0.00 | 75 | 1019.9 |
| 20260901132836 | 84 | 146 | 0.9 | 2.6 | 0.00 | 0.00 | 0.00 | 75 | 1019.9 |
| 20260901132725 | 84 | 129 | 0.9 | 2.6 | 0.00 | 0.00 | 0.00 | 75 | 1019.9 |
| 20260901132633 | 84 | 129 | 1.7 | 2.6 | 0.00 | 0.00 | 0.00 | 75 | 1019.9 |
| 20260901132524 | 84 | 111 | 1.7 | 2.6 | 0.00 | 0.00 | 0.00 | 75 | 1019.9 |
| 20260901132431 | 84 | 146 | 1.7 | 2.6 | 0.00 | 0.00 | 0.00 | 75 | 1019.9 |
| 20260901132340 | 84 | 151 | 0.9 | 2.6 | 0.00 | 0.00 | 0.00 | 75 | 1019.9 |
| 20260901132228 | 84 | 142 | 0.0 | 2.6 | 0.00 | 0.00 | 0.00 | 76 | 1020.0 |
| 20260901132155 | 84 | 86 | 0.9 | 2.6 | 0.00 | 0.00 | 0.00 | 76 | 1019.9 |
| 20260901132021 | 84 | 103 | 0.9 | 2.6 | 0.00 | 0.00 | 0.00 | 76 | 1019.9 |
| 20260901131949 | 84 | 103 | 0.9 | 2.6 | 0.00 | 0.00 | 0.00 | 76 | 1020.0 |
| 20260901131902 | 84 | 111 | 0.0 | 0.0 | 0.00 | 0.00 | 0.00 | 76 | 1020.0 |
| 20260901131635 | 83 | 86 | 0.0 | 0.0 | 0.00 | 0.00 | 0.00 | 77 | 1019.8 |
| 20260901131523 | 83 | 65 | 0.0 | 0.0 | 0.00 | 0.00 | 0.00 | 77 | 1019.9 |
| 20260901131431 | 83 | 65 | 0.0 | 0.0 | 0.00 | 0.00 | 0.00 | 77 | 1019.9 |
| 20260901131321 | 83 | 78 | 0.0 | 0.0 | 0.00 | 0.00 | 0.00 | 77 | 1019.9 |
| 20260901131249 | 83 | 78 | 0.0 | 0.0 | 0.00 | 0.00 | 0.00 | 78 | 1019.9 |
| 20260901131135 | 82 | 355 | 0.0 | 0.0 | 0.00 | 0.00 | 0.00 | 78 | 1019.9 |
| 20260901131020 | 82 | 355 | 0.0 | 0.0 | 0.00 | 0.00 | 0.00 | 78 | 1019.9 |
| 20260901130927 | 82 | 355 | 0.0 | 0.0 | 0.00 | 0.00 | 0.00 | 78 | 1019.9 |
| 20260901130835 | 82 | 355 | 0.0 | 0.0 | 0.00 | 0.00 | 0.00 | 79 | 1019.9 |
| 20260901130727 | 82 | 355 | 0.0 | 0.0 | 0.00 | 0.00 | 0.00 | 79 | 1019.8 |
| 20260901130635 | 81 | 355 | 0.0 | 0.0 | 0.00 | 0.00 | 0.00 | 80 | 1019.9 |
| 20260901130543 | 81 | 355 | 0.0 | 0.0 | 0.00 | 0.00 | 0.00 | 80 | 1019.8 |
| 20260901130448 | 81 | 355 | 0.0 | 0.0 | 0.00 | 0.00 | 0.00 | 81 | 1019.8 |
| 20260901130357 | 81 | 355 | 0.0 | 0.0 | 0.00 | 0.00 | 0.00 | 81 | 1019.8 |
| 20260901130131 | 80 | 355 | 0.0 | 0.0 | 0.00 | 0.00 | 0.00 | 81 | 1019.7 |
| 20260901130022 | 80 | 355 | 0.0 | 0.0 | 0.00 | 0.00 | 0.00 | 81 | 1019.8 |
| 20260901125928 | 80 | 355 | 0.0 | 0.0 | 0.00 | 0.00 | 0.00 | 81 | 1019.7 |
| 20260901125836 | 80 | 355 | 0.0 | 0.0 | 0.00 | 0.00 | 0.00 | 82 | 1019.7 |
| 20260901125724 | 80 | 355 | 0.0 | 0.0 | 0.00 | 0.00 | 0.00 | 82 | 1019.7 |
| 20260901125631 | 79 | 355 | 0.0 | 0.0 | 0.00 | 0.00 | 0.00 | 82 | 1019.8 |
| 20260901125523 | 79 | 355 | 0.0 | 0.0 | 0.00 | 0.00 | 0.00 | 83 | 1019.6 |
| 20260901125431 | 79 | 355 | 0.0 | 0.0 | 0.00 | 0.00 | 0.00 | 83 | 1019.7 |
| 20260901125359 | 79 | 355 | 0.0 | 0.0 | 0.00 | 0.00 | 0.00 | 82 | 1019.7 |
| 20260901125224 | 79 | 355 | 0.0 | 0.0 | 0.00 | 0.00 | 0.00 | 83 | 1019.7 |
| 20260901125131 | 79 | 355 | 0.0 | 0.0 | 0.00 | 0.00 | 0.00 | 83 | 1019.8 |
| 20260901125039 | 79 | 355 | 0.0 | 0.0 | 0.00 | 0.00 | 0.00 | 84 | 1019.7 |
| 20260901125007 | 78 | 355 | 0.0 | 0.0 | 0.00 | 0.00 | 0.00 | 84 | 1019.7 |
| 20260901124922 | 78 | 355 | 0.0 | 0.0 | 0.00 | 0.00 | 0.00 | 84 | 1019.7 |
| 20260901124633 | 78 | 355 | 0.0 | 0.0 | 0.00 | 0.00 | 0.00 | 85 | 1019.7 |
| 20260901124521 | 78 | 355 | 0.0 | 0.0 | 0.00 | 0.00 | 0.00 | 85 | 1019.8 |
| 20260901124429 | 78 | 355 | 0.0 | 0.0 | 0.00 | 0.00 | 0.00 | 85 | 1019.7 |
| 20260901124321 | 77 | 355 | 0.0 | 0.0 | 0.00 | 0.00 | 0.00 | 85 | 1019.7 |
| 20260901124228 | 77 | 355 | 0.0 | 0.0 | 0.00 | 0.00 | 0.00 | 86 | 1019.8 |
| 20260901124137 | 77 | 355 | 0.0 | 0.0 | 0.00 | 0.00 | 0.00 | 86 | 1019.8 |
| 20260901124044 | 77 | 355 | 0.0 | 0.0 | 0.00 | 0.00 | 0.00 | 87 | 1019.7 |
| 20260901123930 | 77 | 355 | 0.0 | 0.0 | 0.00 | 0.00 | 0.00 | 87 | 1019.7 |
| 20260901123838 | 76 | 355 | 0.0 | 0.0 | 0.00 | 0.00 | 0.00 | 87 | 1019.8 |
| 20260901123730 | 76 | 355 | 0.0 | 0.0 | 0.00 | 0.00 | 0.00 | 88 | 1019.8 |
| 20260901123636 | 76 | 355 | 0.0 | 0.0 | 0.00 | 0.00 | 0.00 | 88 | 1019.7 |
| 20260901123524 | 76 | 355 | 0.0 | 0.0 | 0.00 | 0.00 | 0.00 | 88 | 1019.8 |
| 20260901123452 | 76 | 355 | 0.0 | 1.7 | 0.00 | 0.00 | 0.00 | 88 | 1019.7 |
| 20260901123402 | 76 | 355 | 0.0 | 1.7 | 0.00 | 0.00 | 0.00 | 89 | 1019.7 |
| 20260901123140 | 76 | 355 | 0.0 | 1.7 | 0.00 | 0.00 | 0.00 | 89 | 1019.7 |
| 20260901123026 | 76 | 355 | 0.0 | 1.7 | 0.00 | 0.00 | 0.00 | 89 | 1019.7 |
| 20260901122955 | 75 | 355 | 0.0 | 1.7 | 0.00 | 0.00 | 0.00 | 89 | 1019.7 |
| 20260901122822 | 75 | 355 | 0.0 | 1.7 | 0.00 | 0.00 | 0.00 | 89 | 1019.7 |
| 20260901122730 | 75 | 355 | 0.9 | 2.6 | 0.00 | 0.00 | 0.00 | 89 | 1019.7 |
| 20260901122621 | 75 | 355 | 0.9 | 2.6 | 0.00 | 0.00 | 0.00 | 89 | 1019.7 |
| 20260901122549 | 75 | 355 | 0.9 | 2.6 | 0.00 | 0.00 | 0.00 | 89 | 1019.7 |
| 20260901122435 | 75 | 355 | 0.9 | 2.6 | 0.00 | 0.00 | 0.00 | 89 | 1019.7 |
| 20260901122322 | 75 | 355 | 0.9 | 2.6 | 0.00 | 0.00 | 0.00 | 89 | 1019.6 |
| 20260901122230 | 75 | 355 | 0.9 | 2.6 | 0.00 | 0.00 | 0.00 | 90 | 1019.7 |
| 20260901122138 | 74 | 355 | 0.9 | 2.6 | 0.00 | 0.00 | 0.00 | 90 | 1019.7 |
| 20260901122029 | 74 | 355 | 1.7 | 2.6 | 0.00 | 0.00 | 0.00 | 90 | 1019.6 |
| 20260901121906 | 74 | 355 | 1.7 | 2.6 | 0.00 | 0.00 | 0.00 | 90 | 1019.7 |
| 20260901121700 | 74 | 355 | 1.7 | 2.6 | 0.00 | 0.00 | 0.00 | 90 | 1019.6 |
| 20260901121526 | 74 | 355 | 1.7 | 2.6 | 0.00 | 0.00 | 0.00 | 91 | 1019.5 |
| 20260901121438 | 74 | 355 | 1.7 | 2.6 | 0.00 | 0.00 | 0.00 | 91 | 1019.6 |
| 20260901121326 | 73 | 355 | 1.7 | 2.6 | 0.00 | 0.00 | 0.00 | 91 | 1019.5 |
| 20260901121233 | 73 | 355 | 1.7 | 1.7 | 0.00 | 0.00 | 0.00 | 91 | 1019.5 |
| 20260901121140 | 73 | 355 | 0.9 | 1.7 | 0.00 | 0.00 | 0.00 | 91 | 1019.5 |
| 20260901121026 | 73 | 355 | 0.0 | 1.7 | 0.00 | 0.00 | 0.00 | 92 | 1019.5 |
| 20260901120953 | 73 | 355 | 0.0 | 1.7 | 0.00 | 0.00 | 0.00 | 92 | 1019.5 |
| 20260901120821 | 73 | 355 | 0.0 | 1.7 | 0.00 | 0.00 | 0.00 | 93 | 1019.5 |
| 20260901120728 | 73 | 355 | 0.9 | 2.6 | 0.00 | 0.00 | 0.00 | 93 | 1019.5 |
| 20260901120635 | 73 | 355 | 0.9 | 2.6 | 0.00 | 0.00 | 0.00 | 93 | 1019.5 |
| 20260901120523 | 73 | 355 | 0.9 | 2.6 | 0.00 | 0.00 | 0.00 | 92 | 1019.6 |
| 20260901120405 | 73 | 355 | 0.9 | 2.6 | 0.00 | 0.00 | 0.00 | 92 | 1019.6 |
| 20260901120138 | 72 | 355 | 1.7 | 2.6 | 0.00 | 0.00 | 0.00 | 92 | 1019.5 |
| 20260901120025 | 72 | 355 | 1.7 | 2.6 | 0.00 | 0.00 | 0.00 | 92 | 1019.4 |
| 20260901115933 | 72 | 355 | 1.7 | 2.6 | 0.00 | 0.00 | 0.00 | 92 | 1019.5 |
| 20260901115820 | 72 | 355 | 1.7 | 2.6 | 0.00 | 0.00 | 0.00 | 92 | 1019.5 |
| 20260901115752 | 72 | 355 | 1.7 | 2.6 | 0.00 | 0.00 | 0.00 | 92 | 1019.4 |
| 20260901115639 | 72 | 355 | 1.7 | 2.6 | 0.00 | 0.00 | 0.00 | 92 | 1019.4 |
| 20260901115527 | 72 | 355 | 0.9 | 2.6 | 0.00 | 0.00 | 0.00 | 92 | 1019.4 |
| 20260901115434 | 72 | 355 | 0.9 | 2.6 | 0.00 | 0.00 | 0.00 | 92 | 1019.4 |
| 20260901115321 | 72 | 355 | 1.7 | 2.6 | 0.00 | 0.00 | 0.00 | 92 | 1019.4 |
| 20260901115248 | 72 | 355 | 0.9 | 2.6 | 0.00 | 0.00 | 0.00 | 92 | 1019.4 |
| 20260901115139 | 72 | 355 | 0.9 | 1.7 | 0.00 | 0.00 | 0.00 | 92 | 1019.4 |
| 20260901115024 | 72 | 355 | 0.9 | 1.7 | 0.00 | 0.00 | 0.00 | 92 | 1019.3 |
| 20260901114932 | 72 | 355 | 0.9 | 2.6 | 0.00 | 0.00 | 0.00 | 93 | 1019.4 |
| 20260901114903 | 72 | 355 | 0.9 | 2.6 | 0.00 | 0.00 | 0.00 | 93 | 1019.4 |
| 20260901114657 | 72 | 355 | 0.9 | 2.6 | 0.00 | 0.00 | 0.00 | 93 | 1019.3 |
| 20260901114529 | 72 | 355 | 0.9 | 2.6 | 0.00 | 0.00 | 0.00 | 93 | 1019.3 |
| 20260901114457 | 72 | 355 | 0.9 | 2.6 | 0.00 | 0.00 | 0.00 | 93 | 1019.4 |
| 20260901114322 | 72 | 355 | 0.9 | 2.6 | 0.00 | 0.00 | 0.00 | 93 | 1019.3 |
| 20260901114230 | 72 | 355 | 0.9 | 2.6 | 0.00 | 0.00 | 0.00 | 93 | 1019.3 |
| 20260901114138 | 72 | 355 | 0.9 | 2.6 | 0.00 | 0.00 | 0.00 | 92 | 1019.3 |
| 20260901114025 | 72 | 355 | 1.7 | 2.6 | 0.00 | 0.00 | 0.00 | 92 | 1019.3 |
| 20260901113936 | 72 | 355 | 1.7 | 2.6 | 0.00 | 0.00 | 0.00 | 92 | 1019.2 |
| 20260901113823 | 72 | 355 | 0.9 | 2.6 | 0.00 | 0.00 | 0.00 | 92 | 1019.2 |
| 20260901113730 | 72 | 355 | 1.7 | 2.6 | 0.00 | 0.00 | 0.00 | 92 | 1019.2 |
| 20260901113638 | 72 | 355 | 1.7 | 2.6 | 0.00 | 0.00 | 0.00 | 92 | 1019.2 |
| 20260901113527 | 72 | 355 | 1.7 | 2.6 | 0.00 | 0.00 | 0.00 | 92 | 1019.3 |
| 20260901113410 | 72 | 355 | 1.7 | 2.6 | 0.00 | 0.00 | 0.00 | 92 | 1019.2 |
| 20260901113123 | 72 | 355 | 1.7 | 2.6 | 0.00 | 0.00 | 0.00 | 92 | 1019.2 |
| 20260901113030 | 72 | 355 | 1.7 | 2.6 | 0.00 | 0.00 | 0.00 | 92 | 1019.2 |
| 20260901112958 | 72 | 355 | 1.7 | 2.6 | 0.00 | 0.00 | 0.00 | 92 | 1019.2 |
| 20260901112828 | 72 | 355 | 1.7 | 2.6 | 0.00 | 0.00 | 0.00 | 92 | 1019.2 |
| 20260901112733 | 72 | 355 | 1.7 | 2.6 | 0.00 | 0.00 | 0.00 | 92 | 1019.2 |
| 20260901112622 | 72 | 355 | 1.7 | 2.6 | 0.00 | 0.00 | 0.00 | 92 | 1019.2 |
| 20260901112530 | 72 | 355 | 1.7 | 2.6 | 0.00 | 0.00 | 0.00 | 92 | 1019.2 |
| 20260901112437 | 72 | 355 | 1.7 | 2.6 | 0.00 | 0.00 | 0.00 | 92 | 1019.2 |
| 20260901112328 | 72 | 355 | 1.7 | 2.6 | 0.00 | 0.00 | 0.00 | 92 | 1019.2 |
| 20260901112236 | 72 | 355 | 1.7 | 2.6 | 0.00 | 0.00 | 0.00 | 92 | 1019.1 |
| 20260901112122 | 72 | 355 | 1.7 | 2.6 | 0.00 | 0.00 | 0.00 | 92 | 1019.1 |
| 20260901112029 | 72 | 355 | 1.7 | 2.6 | 0.00 | 0.00 | 0.00 | 92 | 1019.1 |
| 20260901111931 | 72 | 355 | 1.7 | 2.6 | 0.00 | 0.00 | 0.00 | 92 | 1019.1 |
| 20260901111622 | 72 | 355 | 1.7 | 3.5 | 0.00 | 0.00 | 0.00 | 92 | 1019.0 |
| 20260901111528 | 72 | 355 | 1.7 | 3.5 | 0.00 | 0.00 | 0.00 | 92 | 1019.1 |
| 20260901111455 | 72 | 355 | 1.7 | 3.5 | 0.00 | 0.00 | 0.00 | 92 | 1019.1 |
| 20260901111322 | 72 | 355 | 1.7 | 3.5 | 0.00 | 0.00 | 0.00 | 92 | 1019.1 |
| 20260901111229 | 72 | 355 | 1.7 | 3.5 | 0.00 | 0.00 | 0.00 | 92 | 1019.1 |
| 20260901111121 | 72 | 355 | 1.7 | 3.5 | 0.00 | 0.00 | 0.00 | 92 | 1019.0 |
| 20260901111029 | 72 | 355 | 1.7 | 3.5 | 0.00 | 0.00 | 0.00 | 92 | 1019.0 |
| 20260901110937 | 72 | 344 | 1.7 | 2.6 | 0.00 | 0.00 | 0.00 | 92 | 1019.0 |
| 20260901110824 | 72 | 340 | 1.7 | 2.6 | 0.00 | 0.00 | 0.00 | 92 | 1019.0 |
| 20260901110731 | 72 | 343 | 1.7 | 2.6 | 0.00 | 0.00 | 0.00 | 92 | 1019.0 |
| 20260901110657 | 72 | 5 | 1.7 | 2.6 | 0.00 | 0.00 | 0.00 | 92 | 1019.1 |
| 20260901110527 | 72 | 5 | 1.7 | 2.6 | 0.00 | 0.00 | 0.00 | 92 | 1019.0 |
| 20260901110455 | 72 | 5 | 1.7 | 2.6 | 0.00 | 0.00 | 0.00 | 92 | 1019.0 |
| 20260901110404 | 72 | 5 | 1.7 | 2.6 | 0.00 | 0.00 | 0.00 | 92 | 1019.0 |
| 20260901110137 | 72 | 5 | 1.7 | 2.6 | 0.00 | 0.00 | 0.00 | 92 | 1018.9 |
| 20260901110024 | 72 | 5 | 1.7 | 2.6 | 0.00 | 0.00 | 0.00 | 92 | 1018.9 |
| 20260901105936 | 72 | 5 | 1.7 | 2.6 | 0.00 | 0.00 | 0.00 | 92 | 1019.0 |
| 20260901105824 | 72 | 5 | 1.7 | 2.6 | 0.00 | 0.00 | 0.00 | 92 | 1019.1 |
| 20260901105730 | 72 | 5 | 1.7 | 2.6 | 0.00 | 0.00 | 0.00 | 92 | 1018.9 |
| 20260901105636 | 72 | 5 | 1.7 | 2.6 | 0.00 | 0.00 | 0.00 | 92 | 1019.0 |
| 20260901105524 | 72 | 5 | 1.7 | 2.6 | 0.00 | 0.00 | 0.00 | 92 | 1019.0 |
| 20260901105435 | 72 | 5 | 1.7 | 2.6 | 0.00 | 0.00 | 0.00 | 92 | 1018.9 |
| 20260901105324 | 72 | 5 | 1.7 | 2.6 | 0.00 | 0.00 | 0.00 | 92 | 1019.0 |
| 20260901105232 | 72 | 5 | 1.7 | 2.6 | 0.00 | 0.00 | 0.00 | 92 | 1019.0 |
| 20260901105139 | 72 | 5 | 1.7 | 2.6 | 0.00 | 0.00 | 0.00 | 92 | 1019.1 |
| 20260901105027 | 72 | 5 | 1.7 | 2.6 | 0.00 | 0.00 | 0.00 | 92 | 1019.0 |
| 20260901104908 | 72 | 5 | 1.7 | 2.6 | 0.00 | 0.00 | 0.00 | 92 | 1019.1 |
| 20260901104622 | 72 | 5 | 1.7 | 2.6 | 0.00 | 0.00 | 0.00 | 92 | 1019.0 |
| 20260901104530 | 72 | 5 | 1.7 | 2.6 | 0.00 | 0.00 | 0.00 | 92 | 1019.0 |
| 20260901104439 | 72 | 5 | 1.7 | 2.6 | 0.00 | 0.00 | 0.00 | 92 | 1019.1 |
| 20260901104329 | 72 | 5 | 1.7 | 2.6 | 0.00 | 0.00 | 0.00 | 92 | 1019.0 |
| 20260901104237 | 72 | 5 | 1.7 | 2.6 | 0.00 | 0.00 | 0.00 | 92 | 1018.9 |
| 20260901104124 | 72 | 5 | 1.7 | 2.6 | 0.00 | 0.00 | 0.00 | 91 | 1018.9 |
| 20260901104031 | 72 | 5 | 1.7 | 2.6 | 0.00 | 0.00 | 0.00 | 91 | 1018.9 |
| 20260901103959 | 72 | 5 | 1.7 | 2.6 | 0.00 | 0.00 | 0.00 | 91 | 1019.0 |
| 20260901103824 | 72 | 5 | 1.7 | 2.6 | 0.00 | 0.00 | 0.00 | 91 | 1018.9 |
| 20260901103736 | 72 | 5 | 1.7 | 2.6 | 0.00 | 0.00 | 0.00 | 91 | 1018.9 |
| 20260901103623 | 72 | 5 | 1.7 | 2.6 | 0.00 | 0.00 | 0.00 | 91 | 1018.9 |
| 20260901103551 | 72 | 5 | 1.7 | 2.6 | 0.00 | 0.00 | 0.00 | 91 | 1018.9 |
| 20260901103437 | 72 | 5 | 1.7 | 2.6 | 0.00 | 0.00 | 0.00 | 91 | 1018.9 |
| 20260901103408 | 72 | 5 | 0.9 | 1.7 | 0.00 | 0.00 | 0.00 | 91 | 1018.9 |
| 20260901103125 | 72 | 5 | 0.0 | 1.7 | 0.00 | 0.00 | 0.00 | 92 | 1018.8 |
| 20260901103033 | 72 | 5 | 0.0 | 0.9 | 0.00 | 0.00 | 0.00 | 92 | 1018.9 |
| 20260901102940 | 72 | 5 | 0.0 | 0.9 | 0.00 | 0.00 | 0.00 | 92 | 1018.8 |
| 20260901102847 | 72 | 5 | 0.0 | 1.7 | 0.00 | 0.00 | 0.00 | 91 | 1018.8 |
| 20260901102733 | 72 | 5 | 0.0 | 1.7 | 0.00 | 0.00 | 0.00 | 91 | 1018.9 |
| 20260901102625 | 72 | 5 | 0.0 | 1.7 | 0.00 | 0.00 | 0.00 | 91 | 1018.9 |
| 20260901102532 | 72 | 5 | 0.0 | 1.7 | 0.00 | 0.00 | 0.00 | 91 | 1018.8 |
| 20260901102420 | 72 | 5 | 0.0 | 1.7 | 0.00 | 0.00 | 0.00 | 91 | 1018.8 |
| 20260901102348 | 72 | 5 | 0.0 | 1.7 | 0.00 | 0.00 | 0.00 | 91 | 1018.8 |
| 20260901102235 | 72 | 5 | 0.9 | 1.7 | 0.00 | 0.00 | 0.00 | 91 | 1018.8 |
| 20260901102121 | 72 | 5 | 0.9 | 1.7 | 0.00 | 0.00 | 0.00 | 91 | 1018.8 |
| 20260901102033 | 72 | 5 | 0.9 | 1.7 | 0.00 | 0.00 | 0.00 | 91 | 1018.8 |
| 20260901101932 | 72 | 5 | 0.9 | 1.7 | 0.00 | 0.00 | 0.00 | 91 | 1018.8 |
| 20260901101624 | 73 | 5 | 0.9 | 1.7 | 0.00 | 0.00 | 0.00 | 91 | 1018.7 |
| 20260901101532 | 73 | 5 | 0.9 | 1.7 | 0.00 | 0.00 | 0.00 | 91 | 1018.7 |
| 20260901101424 | 73 | 5 | 0.9 | 1.7 | 0.00 | 0.00 | 0.00 | 91 | 1018.7 |
| 20260901101332 | 73 | 5 | 0.9 | 1.7 | 0.00 | 0.00 | 0.00 | 91 | 1018.7 |
| 20260901101240 | 73 | 5 | 0.9 | 1.7 | 0.00 | 0.00 | 0.00 | 91 | 1018.7 |
| 20260901101125 | 73 | 5 | 0.9 | 1.7 | 0.00 | 0.00 | 0.00 | 92 | 1018.7 |
| 20260901101033 | 73 | 5 | 0.9 | 1.7 | 0.00 | 0.00 | 0.00 | 92 | 1018.7 |
| 20260901100925 | 73 | 5 | 0.9 | 1.7 | 0.00 | 0.00 | 0.00 | 92 | 1018.8 |
| 20260901100831 | 73 | 5 | 0.9 | 1.7 | 0.00 | 0.00 | 0.00 | 92 | 1018.7 |
| 20260901100739 | 73 | 5 | 0.9 | 1.7 | 0.00 | 0.00 | 0.00 | 92 | 1018.7 |
| 20260901100627 | 73 | 5 | 0.9 | 1.7 | 0.00 | 0.00 | 0.00 | 92 | 1018.7 |
| 20260901100533 | 73 | 5 | 0.9 | 1.7 | 0.00 | 0.00 | 0.00 | 92 | 1018.8 |
| 20260901100442 | 73 | 5 | 0.9 | 1.7 | 0.00 | 0.00 | 0.00 | 92 | 1018.7 |
| 20260901100356 | 73 | 5 | 0.9 | 1.7 | 0.00 | 0.00 | 0.00 | 92 | 1018.7 |
| 20260901100129 | 73 | 5 | 1.7 | 1.7 | 0.00 | 0.00 | 0.00 | 92 | 1018.6 |
| 20260901100056 | 73 | 5 | 1.7 | 1.7 | 0.00 | 0.00 | 0.00 | 93 | 1018.7 |
| 20260901095923 | 73 | 5 | 0.9 | 1.7 | 0.00 | 0.00 | 0.00 | 93 | 1018.6 |
| 20260901095829 | 73 | 5 | 0.9 | 1.7 | 0.00 | 0.00 | 0.00 | 93 | 1018.6 |
| 20260901095720 | 73 | 5 | 0.9 | 1.7 | 0.00 | 0.00 | 0.00 | 93 | 1018.6 |
| 20260901095627 | 73 | 5 | 0.9 | 1.7 | 0.00 | 0.00 | 0.00 | 93 | 1018.6 |
| 20260901095535 | 73 | 5 | 0.9 | 1.7 | 0.00 | 0.00 | 0.00 | 92 | 1018.5 |
| 20260901095423 | 73 | 5 | 0.9 | 1.7 | 0.00 | 0.00 | 0.00 | 92 | 1018.6 |
| 20260901095331 | 73 | 5 | 0.9 | 1.7 | 0.00 | 0.00 | 0.00 | 92 | 1018.5 |
| 20260901095222 | 73 | 5 | 0.9 | 1.7 | 0.00 | 0.00 | 0.00 | 92 | 1018.6 |
| 20260901095130 | 73 | 5 | 0.9 | 1.7 | 0.00 | 0.00 | 0.00 | 92 | 1018.5 |
| 20260901095037 | 73 | 5 | 0.9 | 1.7 | 0.00 | 0.00 | 0.00 | 92 | 1018.6 |
| 20260901094944 | 73 | 5 | 0.9 | 1.7 | 0.00 | 0.00 | 0.00 | 92 | 1018.5 |
| 20260901094916 | 73 | 5 | 0.9 | 1.7 | 0.00 | 0.00 | 0.00 | 92 | 1018.5 |
| 20260901094631 | 73 | 5 | 0.9 | 0.9 | 0.00 | 0.00 | 0.00 | 92 | 1018.5 |
| 20260901094539 | 73 | 5 | 0.9 | 0.9 | 0.00 | 0.00 | 0.00 | 92 | 1018.5 |
| 20260901094426 | 73 | 5 | 0.0 | 0.9 | 0.00 | 0.00 | 0.00 | 92 | 1018.5 |
| 20260901094333 | 73 | 5 | 0.0 | 0.0 | 0.00 | 0.00 | 0.00 | 92 | 1018.5 |
| 20260901094222 | 73 | 5 | 0.0 | 0.0 | 0.00 | 0.00 | 0.00 | 92 | 1018.5 |
| 20260901094130 | 73 | 5 | 0.0 | 0.0 | 0.00 | 0.00 | 0.00 | 92 | 1018.5 |
| 20260901094021 | 73 | 5 | 0.0 | 0.0 | 0.00 | 0.00 | 0.00 | 92 | 1018.5 |
| 20260901093929 | 73 | 5 | 0.0 | 0.0 | 0.00 | 0.00 | 0.00 | 92 | 1018.4 |
| 20260901093837 | 73 | 5 | 0.0 | 0.0 | 0.00 | 0.00 | 0.00 | 92 | 1018.5 |
| 20260901093745 | 73 | 5 | 0.0 | 0.0 | 0.00 | 0.00 | 0.00 | 92 | 1018.4 |
| 20260901093632 | 73 | 5 | 0.0 | 0.0 | 0.00 | 0.00 | 0.00 | 92 | 1018.3 |
| 20260901093538 | 73 | 5 | 0.0 | 0.0 | 0.00 | 0.00 | 0.00 | 92 | 1018.5 |
| 20260901093511 | 73 | 5 | 0.0 | 0.0 | 0.00 | 0.00 | 0.00 | 92 | 1018.5 |
| 20260901093358 | 73 | 5 | 0.0 | 0.0 | 0.00 | 0.00 | 0.00 | 92 | 1018.4 |
| 20260901093132 | 73 | 5 | 0.0 | 0.0 | 0.00 | 0.00 | 0.00 | 92 | 1018.5 |
| 20260901093039 | 73 | 5 | 0.0 | 0.0 | 0.00 | 0.00 | 0.00 | 92 | 1018.4 |
| 20260901092947 | 73 | 5 | 0.0 | 0.0 | 0.00 | 0.00 | 0.00 | 92 | 1018.4 |
| 20260901092836 | 73 | 5 | 0.0 | 0.0 | 0.00 | 0.00 | 0.00 | 92 | 1018.4 |
| 20260901092724 | 73 | 5 | 0.0 | 0.0 | 0.00 | 0.00 | 0.00 | 92 | 1018.4 |
| 20260901092632 | 73 | 5 | 0.0 | 0.0 | 0.00 | 0.00 | 0.00 | 92 | 1018.5 |
| 20260901092600 | 73 | 5 | 0.0 | 0.0 | 0.00 | 0.00 | 0.00 | 92 | 1018.5 |
| 20260901092425 | 73 | 5 | 0.0 | 0.0 | 0.00 | 0.00 | 0.00 | 92 | 1018.5 |
| 20260901092332 | 73 | 5 | 0.0 | 0.0 | 0.00 | 0.00 | 0.00 | 92 | 1018.5 |
| 20260901092224 | 73 | 5 | 0.0 | 0.0 | 0.00 | 0.00 | 0.00 | 92 | 1018.4 |
| 20260901092131 | 73 | 5 | 0.0 | 0.0 | 0.00 | 0.00 | 0.00 | 92 | 1018.4 |
| 20260901092037 | 73 | 5 | 0.0 | 0.0 | 0.00 | 0.00 | 0.00 | 92 | 1018.5 |
| 20260901091924 | 73 | 5 | 0.0 | 0.0 | 0.00 | 0.00 | 0.00 | 92 | 1018.4 |
| 20260901091855 | 73 | 5 | 0.0 | 0.9 | 0.00 | 0.00 | 0.00 | 92 | 1018.4 |
| 20260901091632 | 73 | 5 | 0.0 | 1.7 | 0.00 | 0.00 | 0.00 | 92 | 1018.3 |
| 20260901091539 | 73 | 5 | 0.0 | 1.7 | 0.00 | 0.00 | 0.00 | 92 | 1018.4 |
| 20260901091446 | 73 | 5 | 0.0 | 1.7 | 0.00 | 0.00 | 0.00 | 92 | 1018.4 |
| 20260901091352 | 73 | 5 | 0.0 | 1.7 | 0.00 | 0.00 | 0.00 | 91 | 1018.3 |
| 20260901091239 | 73 | 5 | 0.0 | 1.7 | 0.00 | 0.00 | 0.00 | 91 | 1018.3 |
| 20260901091126 | 73 | 5 | 0.0 | 1.7 | 0.00 | 0.00 | 0.00 | 91 | 1018.3 |
| 20260901091038 | 73 | 5 | 0.0 | 1.7 | 0.00 | 0.00 | 0.00 | 91 | 1018.2 |
| 20260901090946 | 73 | 5 | 0.9 | 1.7 | 0.00 | 0.00 | 0.00 | 91 | 1018.2 |
| 20260901090852 | 73 | 5 | 0.9 | 1.7 | 0.00 | 0.00 | 0.00 | 91 | 1018.3 |
| 20260901090739 | 73 | 5 | 0.9 | 1.7 | 0.00 | 0.00 | 0.00 | 91 | 1018.3 |
| 20260901090627 | 73 | 5 | 0.9 | 1.7 | 0.00 | 0.00 | 0.00 | 91 | 1018.3 |
| 20260901090535 | 73 | 5 | 0.9 | 1.7 | 0.00 | 0.00 | 0.00 | 90 | 1018.2 |
| 20260901090427 | 73 | 5 | 0.9 | 1.7 | 0.00 | 0.00 | 0.00 | 90 | 1018.3 |
| 20260901090358 | 73 | 5 | 0.9 | 1.7 | 0.00 | 0.00 | 0.00 | 90 | 1018.3 |
| 20260901090130 | 73 | 5 | 0.9 | 1.7 | 0.00 | 0.00 | 0.00 | 90 | 1018.2 |
| 20260901090036 | 73 | 5 | 1.7 | 1.7 | 0.00 | 0.00 | 0.00 | 90 | 1018.2 |
| 20260901085924 | 73 | 5 | 1.7 | 1.7 | 0.00 | 0.00 | 0.00 | 90 | 1018.3 |
| 20260901085835 | 73 | 5 | 1.7 | 1.7 | 0.00 | 0.00 | 0.00 | 90 | 1018.2 |
| 20260901085722 | 73 | 5 | 1.7 | 1.7 | 0.00 | 0.00 | 0.00 | 91 | 1018.2 |
| 20260901085650 | 73 | 5 | 1.7 | 1.7 | 0.00 | 0.00 | 0.00 | 91 | 1018.2 |
| 20260901085537 | 73 | 5 | 1.7 | 1.7 | 0.00 | 0.00 | 0.00 | 91 | 1018.2 |
| 20260901085425 | 74 | 5 | 1.7 | 1.7 | 0.00 | 0.00 | 0.00 | 91 | 1018.1 |
| 20260901085332 | 74 | 5 | 0.9 | 1.7 | 0.00 | 0.00 | 0.00 | 91 | 1018.2 |
| 20260901085244 | 74 | 5 | 0.9 | 1.7 | 0.00 | 0.00 | 0.00 | 91 | 1018.1 |
| 20260901085131 | 74 | 5 | 0.9 | 1.7 | 0.00 | 0.00 | 0.00 | 91 | 1018.2 |
| 20260901085038 | 74 | 5 | 0.9 | 1.7 | 0.00 | 0.00 | 0.00 | 91 | 1018.1 |
| 20260901084946 | 74 | 5 | 0.9 | 1.7 | 0.00 | 0.00 | 0.00 | 91 | 1018.0 |
| 20260901084856 | 74 | 5 | 0.9 | 1.7 | 0.00 | 0.00 | 0.00 | 91 | 1018.0 |
| 20260901084653 | 74 | 5 | 0.9 | 1.7 | 0.00 | 0.00 | 0.00 | 91 | 1018.1 |
| 20260901084539 | 74 | 5 | 1.7 | 1.7 | 0.00 | 0.00 | 0.00 | 91 | 1018.1 |
| 20260901084426 | 74 | 5 | 1.7 | 1.7 | 0.00 | 0.00 | 0.00 | 91 | 1018.1 |
| 20260901084333 | 74 | 5 | 0.9 | 1.7 | 0.00 | 0.00 | 0.00 | 91 | 1018.1 |
| 20260901084220 | 74 | 5 | 0.9 | 1.7 | 0.00 | 0.00 | 0.00 | 91 | 1018.1 |
| 20260901084128 | 74 | 5 | 0.9 | 0.9 | 0.00 | 0.00 | 0.00 | 91 | 1018.2 |
| 20260901084040 | 74 | 5 | 0.0 | 0.9 | 0.00 | 0.00 | 0.00 | 91 | 1018.1 |
| 20260901083927 | 74 | 5 | 0.0 | 0.0 | 0.00 | 0.00 | 0.00 | 91 | 1018.1 |
| 20260901083835 | 74 | 5 | 0.0 | 0.0 | 0.00 | 0.00 | 0.00 | 91 | 1018.1 |
| 20260901083723 | 74 | 5 | 0.0 | 0.9 | 0.00 | 0.00 | 0.00 | 91 | 1018.1 |
| 20260901083631 | 74 | 5 | 0.0 | 0.9 | 0.00 | 0.00 | 0.00 | 91 | 1018.1 |
| 20260901083521 | 74 | 5 | 0.0 | 0.9 | 0.00 | 0.00 | 0.00 | 91 | 1018.0 |
| 20260901083448 | 74 | 5 | 0.0 | 0.9 | 0.00 | 0.00 | 0.00 | 91 | 1018.1 |
| 20260901083419 | 74 | 5 | 0.0 | 0.9 | 0.00 | 0.00 | 0.00 | 90 | 1018.1 |
| 20260901083130 | 74 | 5 | 0.0 | 0.9 | 0.00 | 0.00 | 0.00 | 90 | 1018.1 |
| 20260901083039 | 74 | 5 | 0.0 | 0.9 | 0.00 | 0.00 | 0.00 | 90 | 1018.1 |
| 20260901082930 | 74 | 5 | 0.0 | 0.9 | 0.00 | 0.00 | 0.00 | 90 | 1018.0 |
| 20260901082837 | 74 | 5 | 0.0 | 0.9 | 0.00 | 0.00 | 0.00 | 90 | 1018.0 |
| 20260901082725 | 74 | 5 | 0.0 | 0.9 | 0.00 | 0.00 | 0.00 | 91 | 1018.1 |
| 20260901082634 | 74 | 5 | 0.0 | 0.0 | 0.00 | 0.00 | 0.00 | 91 | 1018.1 |
| 20260901082521 | 74 | 5 | 0.0 | 0.0 | 0.00 | 0.00 | 0.00 | 91 | 1018.0 |
| 20260901082434 | 74 | 5 | 0.0 | 0.9 | 0.00 | 0.00 | 0.00 | 91 | 1018.1 |
| 20260901082321 | 74 | 5 | 0.0 | 1.7 | 0.00 | 0.00 | 0.00 | 91 | 1018.0 |
| 20260901082228 | 74 | 5 | 0.0 | 1.7 | 0.00 | 0.00 | 0.00 | 91 | 1018.1 |
| 20260901082136 | 74 | 5 | 0.0 | 1.7 | 0.00 | 0.00 | 0.00 | 91 | 1018.0 |
| 20260901082023 | 74 | 5 | 0.0 | 1.7 | 0.00 | 0.00 | 0.00 | 91 | 1018.0 |
| 20260901081906 | 74 | 5 | 0.0 | 1.7 | 0.00 | 0.00 | 0.00 | 91 | 1018.0 |
| 20260901081638 | 74 | 5 | 0.0 | 1.7 | 0.00 | 0.00 | 0.00 | 91 | 1018.0 |
| 20260901081526 | 74 | 5 | 0.9 | 1.7 | 0.00 | 0.00 | 0.00 | 90 | 1018.0 |
| 20260901081433 | 74 | 5 | 0.9 | 1.7 | 0.00 | 0.00 | 0.00 | 90 | 1018.1 |
| 20260901081324 | 74 | 5 | 0.0 | 0.9 | 0.00 | 0.00 | 0.00 | 91 | 1018.1 |
| 20260901081230 | 74 | 5 | 0.0 | 0.0 | 0.00 | 0.00 | 0.00 | 91 | 1018.1 |
| 20260901081138 | 74 | 5 | 0.0 | 0.0 | 0.00 | 0.00 | 0.00 | 91 | 1018.1 |
| 20260901081025 | 74 | 5 | 0.0 | 0.0 | 0.00 | 0.00 | 0.00 | 91 | 1018.0 |
| 20260901080932 | 74 | 5 | 0.0 | 0.0 | 0.00 | 0.00 | 0.00 | 91 | 1018.0 |
| 20260901080824 | 74 | 5 | 0.0 | 0.0 | 0.00 | 0.00 | 0.00 | 91 | 1018.1 |
| 20260901080731 | 74 | 5 | 0.0 | 0.9 | 0.00 | 0.00 | 0.00 | 91 | 1018.1 |
| 20260901080638 | 74 | 5 | 0.0 | 0.9 | 0.00 | 0.00 | 0.00 | 91 | 1018.0 |
| 20260901080544 | 74 | 5 | 0.0 | 0.9 | 0.00 | 0.00 | 0.00 | 91 | 1018.1 |
| 20260901080404 | 74 | 5 | 0.0 | 0.9 | 0.00 | 0.00 | 0.00 | 90 | 1018.0 |
| 20260901080138 | 74 | 5 | 0.0 | 0.9 | 0.00 | 0.00 | 0.00 | 90 | 1018.0 |
| 20260901080045 | 74 | 5 | 0.0 | 0.9 | 0.00 | 0.00 | 0.00 | 90 | 1018.1 |
| 20260901075931 | 74 | 5 | 0.9 | 0.9 | 0.00 | 0.00 | 0.00 | 90 | 1018.0 |
| 20260901075839 | 74 | 5 | 0.0 | 0.9 | 0.00 | 0.00 | 0.00 | 90 | 1017.9 |
| 20260901075727 | 74 | 5 | 0.0 | 0.9 | 0.00 | 0.00 | 0.00 | 89 | 1017.9 |
| 20260901075620 | 74 | 5 | 0.0 | 0.9 | 0.00 | 0.00 | 0.00 | 89 | 1018.0 |
| 20260901075527 | 74 | 5 | 0.0 | 1.7 | 0.00 | 0.00 | 0.00 | 89 | 1018.0 |
| 20260901075435 | 74 | 5 | 0.0 | 1.7 | 0.00 | 0.00 | 0.00 | 88 | 1018.0 |
| 20260901075323 | 74 | 5 | 0.9 | 1.7 | 0.00 | 0.00 | 0.00 | 89 | 1018.0 |
| 20260901075230 | 74 | 5 | 0.9 | 1.7 | 0.00 | 0.00 | 0.00 | 89 | 1018.0 |
| 20260901075157 | 74 | 5 | 0.9 | 1.7 | 0.00 | 0.00 | 0.00 | 89 | 1017.9 |
| 20260901075027 | 74 | 5 | 0.9 | 1.7 | 0.00 | 0.00 | 0.00 | 89 | 1018.0 |
| 20260901074934 | 74 | 5 | 0.9 | 1.7 | 0.00 | 0.00 | 0.00 | 89 | 1018.0 |
| 20260901074904 | 74 | 5 | 0.9 | 1.7 | 0.00 | 0.00 | 0.00 | 88 | 1018.0 |
| 20260901074637 | 74 | 5 | 0.9 | 1.7 | 0.00 | 0.00 | 0.00 | 88 | 1018.0 |
| 20260901074544 | 74 | 5 | 0.9 | 1.7 | 0.00 | 0.00 | 0.00 | 88 | 1018.0 |
| 20260901074436 | 74 | 5 | 0.9 | 1.7 | 0.00 | 0.00 | 0.00 | 88 | 1018.0 |
| 20260901074324 | 74 | 5 | 0.9 | 1.7 | 0.00 | 0.00 | 0.00 | 88 | 1018.0 |
| 20260901074232 | 74 | 5 | 0.9 | 1.7 | 0.00 | 0.00 | 0.00 | 88 | 1018.0 |
| 20260901074139 | 74 | 5 | 0.9 | 1.7 | 0.00 | 0.00 | 0.00 | 88 | 1017.9 |
| 20260901074027 | 74 | 5 | 0.9 | 1.7 | 0.00 | 0.00 | 0.00 | 88 | 1018.0 |
| 20260901073939 | 74 | 5 | 0.9 | 1.7 | 0.00 | 0.00 | 0.00 | 88 | 1018.0 |
| 20260901073826 | 74 | 5 | 1.7 | 2.6 | 0.00 | 0.00 | 0.00 | 88 | 1018.0 |
| 20260901073735 | 74 | 5 | 1.7 | 2.6 | 0.00 | 0.00 | 0.00 | 88 | 1018.0 |
| 20260901073623 | 74 | 5 | 1.7 | 2.6 | 0.00 | 0.00 | 0.00 | 88 | 1017.9 |
| 20260901073531 | 74 | 5 | 0.9 | 2.6 | 0.00 | 0.00 | 0.00 | 88 | 1018.0 |
| 20260901073422 | 74 | 5 | 1.7 | 2.6 | 0.00 | 0.00 | 0.00 | 89 | 1018.0 |
| 20260901073354 | 74 | 5 | 1.7 | 2.6 | 0.00 | 0.00 | 0.00 | 89 | 1018.0 |
| 20260901073128 | 74 | 5 | 1.7 | 2.6 | 0.00 | 0.00 | 0.00 | 89 | 1018.0 |
| 20260901073036 | 74 | 5 | 1.7 | 2.6 | 0.00 | 0.00 | 0.00 | 89 | 1018.0 |
| 20260901072924 | 74 | 5 | 1.7 | 2.6 | 0.00 | 0.00 | 0.00 | 89 | 1018.0 |
| 20260901072856 | 74 | 5 | 1.7 | 2.6 | 0.00 | 0.00 | 0.00 | 89 | 1018.0 |
| 20260901072721 | 74 | 5 | 1.7 | 2.6 | 0.00 | 0.00 | 0.00 | 89 | 1018.0 |
| 20260901072629 | 74 | 5 | 1.7 | 2.6 | 0.00 | 0.00 | 0.00 | 89 | 1018.0 |
| 20260901072538 | 74 | 5 | 1.7 | 2.6 | 0.00 | 0.00 | 0.00 | 89 | 1017.9 |
| 20260901072425 | 74 | 5 | 1.7 | 2.6 | 0.00 | 0.00 | 0.00 | 89 | 1018.0 |
| 20260901072353 | 74 | 5 | 1.7 | 2.6 | 0.00 | 0.00 | 0.00 | 88 | 1017.9 |
| 20260901072222 | 74 | 5 | 1.7 | 2.6 | 0.00 | 0.00 | 0.00 | 88 | 1018.0 |
| 20260901072130 | 74 | 5 | 1.7 | 2.6 | 0.00 | 0.00 | 0.00 | 88 | 1017.9 |
| 20260901072058 | 74 | 5 | 1.7 | 2.6 | 0.00 | 0.00 | 0.00 | 88 | 1018.0 |
| 20260901072005 | 74 | 5 | 1.7 | 2.6 | 0.00 | 0.00 | 0.00 | 88 | 1018.0 |
| 20260901071914 | 75 | 5 | 1.7 | 2.6 | 0.00 | 0.00 | 0.00 | 88 | 1018.0 |
| 20260901071630 | 75 | 5 | 1.7 | 2.6 | 0.00 | 0.00 | 0.00 | 88 | 1017.9 |
| 20260901071537 | 75 | 5 | 0.9 | 2.6 | 0.00 | 0.00 | 0.00 | 88 | 1018.0 |
| 20260901071426 | 75 | 5 | 0.0 | 0.9 | 0.00 | 0.00 | 0.00 | 88 | 1018.0 |
| 20260901071333 | 75 | 5 | 0.0 | 0.9 | 0.00 | 0.00 | 0.00 | 88 | 1017.9 |
| 20260901071221 | 75 | 5 | 0.0 | 0.9 | 0.00 | 0.00 | 0.00 | 88 | 1018.0 |
| 20260901071129 | 75 | 5 | 0.0 | 1.7 | 0.00 | 0.00 | 0.00 | 88 | 1018.0 |
| 20260901071021 | 75 | 5 | 0.0 | 1.7 | 0.00 | 0.00 | 0.00 | 88 | 1018.1 |
| 20260901070949 | 75 | 5 | 0.0 | 1.7 | 0.00 | 0.00 | 0.00 | 88 | 1017.9 |
| 20260901070834 | 75 | 5 | 0.0 | 1.7 | 0.00 | 0.00 | 0.00 | 88 | 1017.9 |
| 20260901070721 | 75 | 5 | 0.9 | 1.7 | 0.00 | 0.00 | 0.00 | 88 | 1018.0 |
| 20260901070629 | 75 | 5 | 0.0 | 1.7 | 0.00 | 0.00 | 0.00 | 88 | 1018.0 |
| 20260901070520 | 75 | 5 | 0.9 | 1.7 | 0.00 | 0.00 | 0.00 | 88 | 1018.0 |
| 20260901070449 | 75 | 5 | 0.9 | 1.7 | 0.00 | 0.00 | 0.00 | 88 | 1018.1 |
| 20260901070420 | 75 | 5 | 0.9 | 1.7 | 0.00 | 0.00 | 0.00 | 88 | 1018.1 |
| 20260901070153 | 75 | 5 | 0.0 | 0.9 | 0.00 | 0.00 | 0.00 | 88 | 1018.0 |
| 20260901070040 | 75 | 5 | 0.0 | 0.9 | 0.00 | 0.00 | 0.00 | 88 | 1018.1 |
| 20260901065925 | 75 | 5 | 0.0 | 0.9 | 0.00 | 0.00 | 0.00 | 89 | 1018.0 |
| 20260901065838 | 75 | 5 | 0.0 | 0.9 | 0.00 | 0.00 | 0.00 | 89 | 1018.0 |
| 20260901065727 | 75 | 5 | 0.0 | 0.9 | 0.00 | 0.00 | 0.00 | 89 | 1018.0 |
| 20260901065634 | 75 | 5 | 0.0 | 0.9 | 0.00 | 0.00 | 0.00 | 89 | 1018.1 |
| 20260901065522 | 75 | 5 | 0.0 | 0.9 | 0.00 | 0.00 | 0.00 | 89 | 1018.1 |
| 20260901065427 | 75 | 5 | 0.0 | 0.9 | 0.00 | 0.00 | 0.00 | 89 | 1018.0 |
| 20260901065320 | 75 | 5 | 0.9 | 0.9 | 0.00 | 0.00 | 0.00 | 89 | 1018.0 |
| 20260901065227 | 75 | 5 | 0.9 | 0.9 | 0.00 | 0.00 | 0.00 | 89 | 1018.0 |
| 20260901065134 | 75 | 5 | 0.0 | 0.9 | 0.00 | 0.00 | 0.00 | 88 | 1018.1 |
| 20260901065021 | 75 | 5 | 0.0 | 0.9 | 0.00 | 0.00 | 0.00 | 88 | 1018.0 |
| 20260901064928 | 75 | 5 | 0.0 | 0.9 | 0.00 | 0.00 | 0.00 | 88 | 1018.1 |
| 20260901064903 | 75 | 5 | 0.0 | 0.9 | 0.00 | 0.00 | 0.00 | 88 | 1018.1 |
| 20260901064636 | 75 | 5 | 0.0 | 0.9 | 0.00 | 0.00 | 0.00 | 87 | 1018.0 |
| 20260901064524 | 75 | 5 | 0.0 | 0.9 | 0.00 | 0.00 | 0.00 | 88 | 1018.1 |
| 20260901064432 | 75 | 5 | 0.0 | 1.7 | 0.00 | 0.00 | 0.00 | 88 | 1018.1 |
| 20260901064338 | 76 | 5 | 0.0 | 1.7 | 0.00 | 0.00 | 0.00 | 88 | 1018.0 |
| 20260901064225 | 76 | 5 | 0.0 | 1.7 | 0.00 | 0.00 | 0.00 | 89 | 1018.0 |
| 20260901064131 | 76 | 5 | 0.0 | 1.7 | 0.00 | 0.00 | 0.00 | 89 | 1018.1 |
| 20260901064022 | 76 | 5 | 0.0 | 2.6 | 0.00 | 0.00 | 0.00 | 89 | 1018.0 |
| 20260901063930 | 76 | 5 | 0.0 | 2.6 | 0.00 | 0.00 | 0.00 | 89 | 1018.1 |
| 20260901063858 | 76 | 5 | 0.0 | 2.6 | 0.00 | 0.00 | 0.00 | 89 | 1018.0 |
| 20260901063742 | 76 | 5 | 0.9 | 2.6 | 0.00 | 0.00 | 0.00 | 88 | 1018.1 |
| 20260901063629 | 76 | 5 | 0.9 | 2.6 | 0.00 | 0.00 | 0.00 | 88 | 1018.1 |
| 20260901063557 | 76 | 5 | 1.7 | 2.6 | 0.00 | 0.00 | 0.00 | 88 | 1018.1 |
| 20260901063443 | 76 | 5 | 1.7 | 2.6 | 0.00 | 0.00 | 0.00 | 88 | 1018.1 |
| 20260901063356 | 76 | 5 | 1.7 | 2.6 | 0.00 | 0.00 | 0.00 | 87 | 1018.1 |
| 20260901063150 | 76 | 5 | 1.7 | 2.6 | 0.00 | 0.00 | 0.00 | 87 | 1018.2 |
| 20260901063056 | 76 | 5 | 0.9 | 2.6 | 0.00 | 0.00 | 0.00 | 87 | 1018.0 |
| 20260901062921 | 76 | 5 | 0.9 | 1.7 | 0.00 | 0.00 | 0.00 | 88 | 1018.1 |
| 20260901062828 | 76 | 5 | 0.9 | 0.9 | 0.00 | 0.00 | 0.00 | 89 | 1018.1 |
| 20260901062736 | 76 | 5 | 0.9 | 0.9 | 0.00 | 0.00 | 0.00 | 89 | 1018.1 |
| 20260901062628 | 76 | 5 | 0.0 | 0.9 | 0.00 | 0.00 | 0.00 | 89 | 1018.1 |
| 20260901062535 | 76 | 5 | 0.0 | 0.9 | 0.00 | 0.00 | 0.00 | 89 | 1018.1 |
| 20260901062422 | 76 | 5 | 0.0 | 0.9 | 0.00 | 0.00 | 0.00 | 89 | 1018.1 |
| 20260901062329 | 76 | 5 | 0.0 | 0.9 | 0.00 | 0.00 | 0.00 | 89 | 1018.1 |
| 20260901062238 | 76 | 5 | 0.0 | 0.9 | 0.00 | 0.00 | 0.00 | 89 | 1018.1 |
| 20260901062149 | 76 | 5 | 0.0 | 0.9 | 0.00 | 0.00 | 0.00 | 89 | 1018.1 |
| 20260901062035 | 76 | 5 | 0.0 | 0.9 | 0.00 | 0.00 | 0.00 | 89 | 1018.2 |
| 20260901061943 | 76 | 5 | 0.0 | 0.9 | 0.00 | 0.00 | 0.00 | 89 | 1018.2 |
| 20260901061913 | 76 | 5 | 0.0 | 0.9 | 0.00 | 0.00 | 0.00 | 88 | 1018.2 |
| 20260901061625 | 76 | 5 | 0.0 | 0.9 | 0.00 | 0.00 | 0.00 | 88 | 1018.3 |
| 20260901061537 | 76 | 5 | 0.0 | 0.9 | 0.00 | 0.00 | 0.00 | 88 | 1018.1 |
| 20260901061424 | 76 | 5 | 0.0 | 0.9 | 0.00 | 0.00 | 0.00 | 88 | 1018.2 |
| 20260901061332 | 76 | 5 | 0.0 | 0.9 | 0.00 | 0.00 | 0.00 | 88 | 1018.3 |
| 20260901061239 | 76 | 5 | 0.0 | 0.9 | 0.00 | 0.00 | 0.00 | 88 | 1018.1 |
| 20260901061127 | 76 | 5 | 0.0 | 0.9 | 0.00 | 0.00 | 0.00 | 88 | 1018.2 |
| 20260901061039 | 76 | 5 | 0.0 | 0.9 | 0.00 | 0.00 | 0.00 | 88 | 1018.2 |
| 20260901060925 | 76 | 5 | 0.0 | 0.9 | 0.00 | 0.00 | 0.00 | 88 | 1018.3 |
| 20260901060833 | 76 | 5 | 0.0 | 0.9 | 0.00 | 0.00 | 0.00 | 88 | 1018.2 |
| 20260901060721 | 76 | 5 | 0.9 | 0.9 | 0.00 | 0.00 | 0.00 | 88 | 1018.2 |
| 20260901060627 | 76 | 5 | 0.0 | 0.9 | 0.00 | 0.00 | 0.00 | 88 | 1018.3 |
| 20260901060555 | 76 | 5 | 0.0 | 0.9 | 0.00 | 0.00 | 0.00 | 88 | 1018.3 |
| 20260901060425 | 76 | 5 | 0.0 | 0.9 | 0.00 | 0.00 | 0.00 | 88 | 1018.3 |
| 20260901060356 | 76 | 5 | 0.0 | 1.7 | 0.00 | 0.00 | 0.00 | 87 | 1018.3 |
| 20260901060129 | 76 | 5 | 0.0 | 1.7 | 0.00 | 0.00 | 0.00 | 87 | 1018.2 |
| 20260901060037 | 76 | 5 | 0.0 | 1.7 | 0.00 | 0.00 | 0.00 | 87 | 1018.3 |
| 20260901055928 | 76 | 5 | 0.0 | 1.7 | 0.00 | 0.00 | 0.00 | 86 | 1018.3 |
| 20260901055834 | 76 | 5 | 0.0 | 1.7 | 0.00 | 0.00 | 0.00 | 87 | 1018.3 |
| 20260901055722 | 76 | 5 | 0.9 | 1.7 | 0.00 | 0.00 | 0.00 | 87 | 1018.3 |
| 20260901055629 | 76 | 5 | 0.9 | 1.7 | 0.00 | 0.00 | 0.00 | 87 | 1018.3 |
| 20260901055556 | 76 | 5 | 0.9 | 1.7 | 0.00 | 0.00 | 0.00 | 87 | 1018.3 |
| 20260901055423 | 76 | 5 | 0.9 | 1.7 | 0.00 | 0.00 | 0.00 | 88 | 1018.3 |
| 20260901055335 | 76 | 5 | 0.9 | 1.7 | 0.00 | 0.00 | 0.00 | 88 | 1018.3 |
| 20260901055222 | 76 | 5 | 0.9 | 1.7 | 0.00 | 0.00 | 0.00 | 87 | 1018.2 |
| 20260901055130 | 76 | 5 | 0.9 | 1.7 | 0.00 | 0.00 | 0.00 | 88 | 1018.3 |
| 20260901055036 | 76 | 5 | 0.9 | 1.7 | 0.00 | 0.00 | 0.00 | 87 | 1018.2 |
| 20260901054943 | 76 | 5 | 0.9 | 1.7 | 0.00 | 0.00 | 0.00 | 87 | 1018.2 |
| 20260901054918 | 76 | 5 | 0.9 | 1.7 | 0.00 | 0.00 | 0.00 | 87 | 1018.2 |
| 20260901054632 | 76 | 5 | 0.9 | 1.7 | 0.00 | 0.00 | 0.00 | 87 | 1018.2 |
| 20260901054539 | 76 | 5 | 0.9 | 1.7 | 0.00 | 0.00 | 0.00 | 88 | 1018.2 |
| 20260901054426 | 76 | 5 | 1.7 | 1.7 | 0.00 | 0.00 | 0.00 | 88 | 1018.1 |
| 20260901054333 | 76 | 5 | 0.9 | 1.7 | 0.00 | 0.00 | 0.00 | 88 | 1018.3 |
| 20260901054300 | 76 | 5 | 0.9 | 1.7 | 0.00 | 0.00 | 0.00 | 88 | 1018.3 |
| 20260901054130 | 76 | 5 | 0.0 | 1.7 | 0.00 | 0.00 | 0.00 | 88 | 1018.3 |
| 20260901054037 | 76 | 5 | 0.0 | 1.7 | 0.00 | 0.00 | 0.00 | 88 | 1018.3 |
| 20260901053924 | 76 | 5 | 0.0 | 2.6 | 0.00 | 0.00 | 0.00 | 88 | 1018.4 |
| 20260901053832 | 76 | 5 | 0.0 | 2.6 | 0.00 | 0.00 | 0.00 | 88 | 1018.3 |
| 20260901053739 | 76 | 5 | 0.0 | 2.6 | 0.00 | 0.00 | 0.00 | 88 | 1018.3 |
| 20260901053631 | 76 | 5 | 0.9 | 2.6 | 0.00 | 0.00 | 0.00 | 88 | 1018.3 |
| 20260901053538 | 76 | 5 | 0.9 | 2.6 | 0.00 | 0.00 | 0.00 | 87 | 1018.3 |
| 20260901053426 | 76 | 5 | 1.7 | 2.6 | 0.00 | 0.00 | 0.00 | 87 | 1018.4 |
| 20260901053356 | 76 | 5 | 1.7 | 2.6 | 0.00 | 0.00 | 0.00 | 87 | 1018.4 |
| 20260901053129 | 76 | 5 | 1.7 | 2.6 | 0.00 | 0.00 | 0.00 | 87 | 1018.4 |
| 20260901053022 | 76 | 5 | 1.7 | 2.6 | 0.00 | 0.00 | 0.00 | 87 | 1018.3 |
| 20260901052930 | 76 | 5 | 1.7 | 2.6 | 0.00 | 0.00 | 0.00 | 87 | 1018.4 |
| 20260901052837 | 76 | 5 | 1.7 | 2.6 | 0.00 | 0.00 | 0.00 | 87 | 1018.4 |
| 20260901052725 | 77 | 5 | 1.7 | 2.6 | 0.00 | 0.00 | 0.00 | 87 | 1018.3 |
| 20260901052633 | 77 | 5 | 1.7 | 2.6 | 0.00 | 0.00 | 0.00 | 87 | 1018.3 |
| 20260901052524 | 77 | 5 | 1.7 | 2.6 | 0.00 | 0.00 | 0.00 | 87 | 1018.4 |
| 20260901052432 | 77 | 5 | 1.7 | 2.6 | 0.00 | 0.00 | 0.00 | 87 | 1018.3 |
| 20260901052340 | 77 | 5 | 1.7 | 2.6 | 0.00 | 0.00 | 0.00 | 87 | 1018.4 |
| 20260901052227 | 77 | 5 | 1.7 | 2.6 | 0.00 | 0.00 | 0.00 | 87 | 1018.4 |
| 20260901052134 | 77 | 5 | 1.7 | 2.6 | 0.00 | 0.00 | 0.00 | 87 | 1018.4 |
| 20260901052024 | 77 | 5 | 1.7 | 2.6 | 0.00 | 0.00 | 0.00 | 87 | 1018.4 |
| 20260901051930 | 77 | 5 | 1.7 | 2.6 | 0.00 | 0.00 | 0.00 | 87 | 1018.4 |
| 20260901051900 | 77 | 5 | 1.7 | 2.6 | 0.00 | 0.00 | 0.00 | 87 | 1018.4 |
| 20260901051633 | 77 | 5 | 0.9 | 2.6 | 0.00 | 0.00 | 0.00 | 87 | 1018.4 |
| 20260901051521 | 77 | 5 | 1.7 | 2.6 | 0.00 | 0.00 | 0.00 | 87 | 1018.4 |
| 20260901051451 | 77 | 5 | 1.7 | 2.6 | 0.00 | 0.00 | 0.00 | 87 | 1018.4 |
| 20260901051338 | 77 | 5 | 1.7 | 2.6 | 0.00 | 0.00 | 0.00 | 87 | 1018.4 |
| 20260901051223 | 77 | 5 | 1.7 | 2.6 | 0.00 | 0.00 | 0.00 | 87 | 1018.3 |
| 20260901051131 | 77 | 5 | 1.7 | 2.6 | 0.00 | 0.00 | 0.00 | 87 | 1018.4 |
| 20260901051038 | 77 | 5 | 2.6 | 2.6 | 0.00 | 0.00 | 0.00 | 87 | 1018.3 |
| 20260901050926 | 77 | 5 | 1.7 | 2.6 | 0.00 | 0.00 | 0.00 | 87 | 1018.4 |
| 20260901050838 | 77 | 5 | 1.7 | 2.6 | 0.00 | 0.00 | 0.00 | 87 | 1018.3 |
| 20260901050726 | 77 | 5 | 1.7 | 2.6 | 0.00 | 0.00 | 0.00 | 87 | 1018.3 |
| 20260901050633 | 77 | 5 | 1.7 | 2.6 | 0.00 | 0.00 | 0.00 | 87 | 1018.3 |
| 20260901050521 | 77 | 5 | 1.7 | 2.6 | 0.00 | 0.00 | 0.00 | 86 | 1018.3 |
| 20260901050428 | 77 | 5 | 1.7 | 2.6 | 0.00 | 0.00 | 0.00 | 86 | 1018.3 |
| 20260901050403 | 77 | 5 | 1.7 | 2.6 | 0.00 | 0.00 | 0.00 | 86 | 1018.3 |
| 20260901050136 | 77 | 5 | 1.7 | 2.6 | 0.00 | 0.00 | 0.00 | 86 | 1018.4 |
| 20260901050024 | 77 | 5 | 1.7 | 2.6 | 0.00 | 0.00 | 0.00 | 86 | 1018.3 |
| 20260901045932 | 77 | 5 | 1.7 | 2.6 | 0.00 | 0.00 | 0.00 | 86 | 1018.3 |
| 20260901045824 | 77 | 5 | 0.9 | 1.7 | 0.00 | 0.00 | 0.00 | 86 | 1018.2 |
| 20260901045731 | 77 | 5 | 0.9 | 1.7 | 0.00 | 0.00 | 0.00 | 87 | 1018.3 |
| 20260901045638 | 77 | 5 | 0.9 | 1.7 | 0.00 | 0.00 | 0.00 | 87 | 1018.3 |
| 20260901045526 | 77 | 5 | 0.9 | 1.7 | 0.00 | 0.00 | 0.00 | 87 | 1018.3 |
| 20260901045433 | 77 | 5 | 0.9 | 1.7 | 0.00 | 0.00 | 0.00 | 87 | 1018.3 |
| 20260901045320 | 77 | 5 | 0.9 | 1.7 | 0.00 | 0.00 | 0.00 | 87 | 1018.3 |
| 20260901045231 | 77 | 5 | 0.9 | 1.7 | 0.00 | 0.00 | 0.00 | 86 | 1018.3 |
| 20260901045139 | 77 | 5 | 0.9 | 1.7 | 0.00 | 0.00 | 0.00 | 86 | 1018.3 |
| 20260901045027 | 77 | 5 | 1.7 | 1.7 | 0.00 | 0.00 | 0.00 | 86 | 1018.3 |
| 20260901044953 | 77 | 5 | 0.9 | 1.7 | 0.00 | 0.00 | 0.00 | 86 | 1018.2 |
| 20260901044906 | 77 | 5 | 0.9 | 1.7 | 0.00 | 0.00 | 0.00 | 86 | 1018.2 |
| 20260901044623 | 77 | 5 | 0.9 | 1.7 | 0.00 | 0.00 | 0.00 | 87 | 1018.2 |
| 20260901044531 | 77 | 5 | 0.0 | 1.7 | 0.00 | 0.00 | 0.00 | 87 | 1018.3 |
| 20260901044439 | 77 | 5 | 0.0 | 0.9 | 0.00 | 0.00 | 0.00 | 87 | 1018.2 |
| 20260901044348 | 77 | 5 | 0.0 | 0.9 | 0.00 | 0.00 | 0.00 | 87 | 1018.3 |
| 20260901044233 | 77 | 5 | 0.0 | 0.9 | 0.00 | 0.00 | 0.00 | 87 | 1018.2 |
| 20260901044123 | 77 | 5 | 0.0 | 0.9 | 0.00 | 0.00 | 0.00 | 87 | 1018.2 |
| 20260901044031 | 77 | 5 | 0.0 | 0.9 | 0.00 | 0.00 | 0.00 | 87 | 1018.2 |
| 20260901043939 | 77 | 5 | 0.0 | 0.9 | 0.00 | 0.00 | 0.00 | 87 | 1018.2 |
| 20260901043827 | 77 | 5 | 0.0 | 0.9 | 0.00 | 0.00 | 0.00 | 87 | 1018.2 |
| 20260901043735 | 77 | 5 | 0.0 | 0.9 | 0.00 | 0.00 | 0.00 | 87 | 1018.1 |
| 20260901043643 | 77 | 5 | 0.9 | 1.7 | 0.00 | 0.00 | 0.00 | 87 | 1018.2 |
| 20260901043550 | 77 | 5 | 0.9 | 1.7 | 0.00 | 0.00 | 0.00 | 87 | 1018.2 |
| 20260901043440 | 77 | 5 | 0.9 | 1.7 | 0.00 | 0.00 | 0.00 | 87 | 1018.2 |
| 20260901043409 | 77 | 5 | 0.9 | 1.7 | 0.00 | 0.00 | 0.00 | 87 | 1018.2 |
| 20260901043143 | 77 | 5 | 0.9 | 1.7 | 0.00 | 0.00 | 0.00 | 87 | 1018.2 |
| 20260901043028 | 77 | 5 | 0.9 | 1.7 | 0.00 | 0.00 | 0.00 | 87 | 1018.2 |
| 20260901042920 | 77 | 5 | 0.9 | 1.7 | 0.00 | 0.00 | 0.00 | 87 | 1018.2 |
| 20260901042828 | 77 | 5 | 0.9 | 1.7 | 0.00 | 0.00 | 0.00 | 87 | 1018.2 |
| 20260901042734 | 77 | 5 | 0.9 | 1.7 | 0.00 | 0.00 | 0.00 | 86 | 1018.1 |
| 20260901042622 | 77 | 5 | 1.7 | 1.7 | 0.00 | 0.00 | 0.00 | 86 | 1018.2 |
| 20260901042529 | 77 | 5 | 1.7 | 1.7 | 0.00 | 0.00 | 0.00 | 86 | 1018.2 |
| 20260901042436 | 77 | 5 | 1.7 | 1.7 | 0.00 | 0.00 | 0.00 | 85 | 1018.2 |
| 20260901042347 | 77 | 5 | 1.7 | 1.7 | 0.00 | 0.00 | 0.00 | 85 | 1018.3 |
| 20260901042234 | 77 | 5 | 1.7 | 1.7 | 0.00 | 0.00 | 0.00 | 85 | 1018.2 |
| 20260901042121 | 77 | 5 | 1.7 | 1.7 | 0.00 | 0.00 | 0.00 | 84 | 1018.2 |
| 20260901042029 | 77 | 5 | 1.7 | 1.7 | 0.00 | 0.00 | 0.00 | 84 | 1018.2 |
| 20260901041935 | 77 | 5 | 1.7 | 1.7 | 0.00 | 0.00 | 0.00 | 84 | 1018.2 |
| 20260901041909 | 77 | 5 | 0.9 | 1.7 | 0.00 | 0.00 | 0.00 | 84 | 1018.2 |
| 20260901041622 | 77 | 5 | 0.9 | 1.7 | 0.00 | 0.00 | 0.00 | 84 | 1018.2 |
| 20260901041530 | 77 | 5 | 0.9 | 1.7 | 0.00 | 0.00 | 0.00 | 84 | 1018.2 |
| 20260901041437 | 77 | 5 | 0.9 | 1.7 | 0.00 | 0.00 | 0.00 | 84 | 1018.2 |
| 20260901041324 | 78 | 5 | 0.9 | 1.7 | 0.00 | 0.00 | 0.00 | 84 | 1018.3 |
| 20260901041235 | 78 | 5 | 0.9 | 1.7 | 0.00 | 0.00 | 0.00 | 84 | 1018.2 |
| 20260901041121 | 78 | 5 | 0.9 | 1.7 | 0.00 | 0.00 | 0.00 | 84 | 1018.2 |
| 20260901041049 | 78 | 5 | 0.0 | 0.9 | 0.00 | 0.00 | 0.00 | 85 | 1018.2 |
| 20260901040935 | 78 | 5 | 0.9 | 0.9 | 0.00 | 0.00 | 0.00 | 85 | 1018.2 |
| 20260901040843 | 78 | 5 | 0.0 | 0.9 | 0.00 | 0.00 | 0.00 | 85 | 1018.2 |
| 20260901040728 | 78 | 5 | 0.0 | 0.0 | 0.00 | 0.00 | 0.00 | 86 | 1018.2 |
| 20260901040635 | 78 | 5 | 0.0 | 0.9 | 0.00 | 0.00 | 0.00 | 86 | 1018.2 |
| 20260901040548 | 78 | 5 | 0.0 | 0.9 | 0.00 | 0.00 | 0.00 | 86 | 1018.2 |
| 20260901040515 | 78 | 5 | 0.0 | 0.9 | 0.00 | 0.00 | 0.00 | 86 | 1018.2 |
| 20260901040424 | 78 | 5 | 0.0 | 0.9 | 0.00 | 0.00 | 0.00 | 86 | 1018.1 |
| 20260901040137 | 78 | 5 | 0.0 | 0.9 | 0.00 | 0.00 | 0.00 | 86 | 1018.3 |
| 20260901040026 | 78 | 5 | 0.0 | 0.9 | 0.00 | 0.00 | 0.00 | 86 | 1018.2 |
| 20260901035936 | 78 | 5 | 0.0 | 0.9 | 0.00 | 0.00 | 0.00 | 86 | 1018.2 |
| 20260901035825 | 78 | 5 | 0.0 | 0.9 | 0.00 | 0.00 | 0.00 | 85 | 1018.2 |
| 20260901035733 | 78 | 5 | 0.0 | 0.9 | 0.00 | 0.00 | 0.00 | 85 | 1018.2 |
| 20260901035640 | 78 | 5 | 0.0 | 0.9 | 0.00 | 0.00 | 0.00 | 85 | 1018.3 |
| 20260901035527 | 78 | 5 | 0.0 | 0.9 | 0.00 | 0.00 | 0.00 | 85 | 1018.3 |
| 20260901035435 | 78 | 5 | 0.0 | 0.9 | 0.00 | 0.00 | 0.00 | 86 | 1018.2 |
| 20260901035347 | 78 | 5 | 0.0 | 0.9 | 0.00 | 0.00 | 0.00 | 85 | 1018.3 |
| 20260901035235 | 78 | 5 | 0.0 | 0.0 | 0.00 | 0.00 | 0.00 | 85 | 1018.2 |
| 20260901035142 | 78 | 5 | 0.0 | 0.0 | 0.00 | 0.00 | 0.00 | 85 | 1018.2 |
| 20260901035030 | 78 | 5 | 0.0 | 0.0 | 0.00 | 0.00 | 0.00 | 85 | 1018.2 |
| 20260901034910 | 78 | 5 | 0.0 | 0.0 | 0.00 | 0.00 | 0.00 | 85 | 1018.2 |
| 20260901034624 | 78 | 5 | 0.0 | 0.0 | 0.00 | 0.00 | 0.00 | 84 | 1018.2 |
| 20260901034532 | 78 | 5 | 0.0 | 0.0 | 0.00 | 0.00 | 0.00 | 84 | 1018.1 |
| 20260901034439 | 78 | 5 | 0.0 | 0.0 | 0.00 | 0.00 | 0.00 | 84 | 1018.2 |
| 20260901034326 | 78 | 5 | 0.0 | 0.0 | 0.00 | 0.00 | 0.00 | 84 | 1018.1 |
| 20260901034254 | 78 | 5 | 0.0 | 0.0 | 0.00 | 0.00 | 0.00 | 84 | 1018.1 |
| 20260901034124 | 78 | 5 | 0.0 | 0.0 | 0.00 | 0.00 | 0.00 | 84 | 1018.0 |
| 20260901034030 | 78 | 5 | 0.0 | 0.0 | 0.00 | 0.00 | 0.00 | 84 | 1018.1 |
| 20260901033938 | 78 | 5 | 0.0 | 0.0 | 0.00 | 0.00 | 0.00 | 84 | 1018.1 |
| 20260901033826 | 78 | 5 | 0.0 | 0.9 | 0.00 | 0.00 | 0.00 | 83 | 1018.1 |
| 20260901033734 | 78 | 5 | 0.0 | 0.9 | 0.00 | 0.00 | 0.00 | 83 | 1018.1 |
| 20260901033646 | 79 | 5 | 0.0 | 0.9 | 0.00 | 0.00 | 0.00 | 83 | 1018.1 |
| 20260901033532 | 79 | 5 | 0.0 | 0.9 | 0.00 | 0.00 | 0.00 | 83 | 1018.2 |
| 20260901033439 | 79 | 5 | 0.0 | 0.9 | 0.00 | 0.00 | 0.00 | 83 | 1018.2 |
| 20260901033409 | 79 | 5 | 0.0 | 0.9 | 0.00 | 0.00 | 0.00 | 82 | 1018.2 |
| 20260901033123 | 79 | 5 | 0.0 | 0.9 | 0.00 | 0.00 | 0.00 | 83 | 1018.3 |
| 20260901033034 | 79 | 5 | 0.0 | 0.9 | 0.00 | 0.00 | 0.00 | 83 | 1018.3 |
| 20260901032922 | 79 | 5 | 0.9 | 0.9 | 0.00 | 0.00 | 0.00 | 83 | 1018.2 |
| 20260901032829 | 79 | 5 | 0.9 | 0.9 | 0.00 | 0.00 | 0.00 | 83 | 1018.3 |
| 20260901032737 | 79 | 5 | 0.9 | 0.9 | 0.00 | 0.00 | 0.00 | 83 | 1018.3 |
| 20260901032624 | 79 | 5 | 0.9 | 0.9 | 0.00 | 0.00 | 0.00 | 83 | 1018.3 |
| 20260901032535 | 79 | 5 | 0.0 | 0.9 | 0.00 | 0.00 | 0.00 | 83 | 1018.4 |
| 20260901032422 | 79 | 5 | 0.0 | 0.0 | 0.00 | 0.00 | 0.00 | 83 | 1018.4 |
| 20260901032330 | 79 | 5 | 0.0 | 0.0 | 0.00 | 0.00 | 0.00 | 83 | 1018.3 |
| 20260901032238 | 80 | 5 | 0.0 | 0.0 | 0.00 | 0.00 | 0.00 | 83 | 1018.3 |
| 20260901032125 | 80 | 5 | 0.0 | 0.0 | 0.00 | 0.00 | 0.00 | 83 | 1018.3 |
| 20260901032032 | 80 | 5 | 0.0 | 0.0 | 0.00 | 0.00 | 0.00 | 83 | 1018.4 |
| 20260901032004 | 80 | 5 | 0.0 | 0.0 | 0.00 | 0.00 | 0.00 | 83 | 1018.4 |
| 20260901031934 | 80 | 5 | 0.0 | 0.0 | 0.00 | 0.00 | 0.00 | 83 | 1018.3 |
| 20260901031627 | 80 | 5 | 0.0 | 0.0 | 0.00 | 0.00 | 0.00 | 83 | 1018.2 |
| 20260901031535 | 80 | 5 | 0.0 | 0.0 | 0.00 | 0.00 | 0.00 | 83 | 1018.2 |
| 20260901031427 | 80 | 5 | 0.0 | 0.0 | 0.00 | 0.00 | 0.00 | 83 | 1018.2 |
| 20260901031334 | 80 | 5 | 0.0 | 0.0 | 0.00 | 0.00 | 0.00 | 83 | 1018.3 |
| 20260901031242 | 80 | 5 | 0.0 | 0.0 | 0.00 | 0.00 | 0.00 | 83 | 1018.3 |
| 20260901031128 | 80 | 5 | 0.0 | 0.0 | 0.00 | 0.00 | 0.00 | 83 | 1018.3 |
| 20260901031036 | 80 | 5 | 0.0 | 0.0 | 0.00 | 0.00 | 0.00 | 84 | 1018.3 |
| 20260901030924 | 80 | 5 | 0.0 | 0.0 | 0.00 | 0.00 | 0.00 | 83 | 1018.3 |
| 20260901030835 | 80 | 5 | 0.0 | 0.0 | 0.00 | 0.00 | 0.00 | 83 | 1018.2 |
| 20260901030723 | 80 | 5 | 0.0 | 0.0 | 0.00 | 0.00 | 0.00 | 83 | 1018.3 |
| 20260901030630 | 80 | 5 | 0.0 | 0.0 | 0.00 | 0.00 | 0.00 | 82 | 1018.2 |
| 20260901030536 | 80 | 5 | 0.0 | 0.0 | 0.00 | 0.00 | 0.00 | 82 | 1018.3 |
| 20260901030424 | 80 | 5 | 0.0 | 0.0 | 0.00 | 0.00 | 0.00 | 82 | 1018.3 |
| 20260901030358 | 80 | 5 | 0.0 | 0.0 | 0.00 | 0.00 | 0.00 | 82 | 1018.3 |
| 20260901030132 | 80 | 5 | 0.0 | 0.0 | 0.00 | 0.00 | 0.00 | 82 | 1018.3 |
| 20260901030039 | 80 | 5 | 0.0 | 0.0 | 0.00 | 0.00 | 0.00 | 81 | 1018.3 |
| 20260901025948 | 80 | 5 | 0.0 | 0.0 | 0.00 | 0.00 | 0.00 | 81 | 1018.4 |
| 20260901025833 | 80 | 5 | 0.0 | 0.0 | 0.00 | 0.00 | 0.00 | 81 | 1018.3 |
| 20260901025724 | 80 | 5 | 0.0 | 0.0 | 0.00 | 0.00 | 0.00 | 81 | 1018.3 |
| 20260901025632 | 80 | 5 | 0.0 | 0.0 | 0.00 | 0.00 | 0.00 | 81 | 1018.3 |
| 20260901025538 | 80 | 5 | 0.0 | 0.0 | 0.00 | 0.00 | 0.00 | 81 | 1018.3 |
| 20260901025425 | 80 | 5 | 0.0 | 0.0 | 0.00 | 0.00 | 0.00 | 81 | 1018.3 |
| 20260901025333 | 80 | 5 | 0.0 | 0.0 | 0.00 | 0.00 | 0.00 | 81 | 1018.3 |
| 20260901025220 | 80 | 5 | 0.0 | 0.0 | 0.00 | 0.00 | 0.00 | 81 | 1018.4 |
| 20260901025133 | 81 | 5 | 0.0 | 0.0 | 0.00 | 0.00 | 0.00 | 81 | 1018.3 |
| 20260901025101 | 81 | 5 | 0.0 | 0.0 | 0.00 | 0.00 | 0.00 | 81 | 1018.3 |
| 20260901024947 | 81 | 5 | 0.0 | 0.0 | 0.00 | 0.00 | 0.00 | 81 | 1018.3 |
| 20260901024856 | 81 | 5 | 0.0 | 0.0 | 0.00 | 0.00 | 0.00 | 80 | 1018.3 |
| 20260901024630 | 81 | 5 | 0.0 | 0.0 | 0.00 | 0.00 | 0.00 | 80 | 1018.3 |
| 20260901024521 | 81 | 5 | 0.0 | 0.0 | 0.00 | 0.00 | 0.00 | 80 | 1018.4 |
| 20260901024428 | 81 | 5 | 0.0 | 0.0 | 0.00 | 0.00 | 0.00 | 80 | 1018.3 |
| 20260901024355 | 81 | 5 | 0.0 | 0.0 | 0.00 | 0.00 | 0.00 | 79 | 1018.3 |
| 20260901024222 | 81 | 5 | 0.0 | 0.0 | 0.00 | 0.00 | 0.00 | 79 | 1018.3 |
| 20260901024130 | 81 | 5 | 0.0 | 0.0 | 0.00 | 0.00 | 0.00 | 79 | 1018.3 |
| 20260901024038 | 81 | 5 | 0.0 | 0.0 | 0.00 | 0.00 | 0.00 | 79 | 1018.3 |
| 20260901023945 | 81 | 5 | 0.0 | 0.0 | 0.00 | 0.00 | 0.00 | 79 | 1018.2 |
| 20260901023836 | 81 | 5 | 0.0 | 0.0 | 0.00 | 0.00 | 0.00 | 78 | 1018.2 |
| 20260901023744 | 81 | 5 | 0.0 | 0.0 | 0.00 | 0.00 | 0.00 | 78 | 1018.2 |
| 20260901023630 | 81 | 5 | 0.0 | 0.0 | 0.00 | 0.00 | 0.00 | 78 | 1018.3 |
| 20260901023558 | 81 | 5 | 0.0 | 0.0 | 0.00 | 0.00 | 0.00 | 78 | 1018.2 |
| 20260901023424 | 81 | 5 | 0.0 | 0.9 | 0.00 | 0.00 | 0.00 | 78 | 1018.2 |
| 20260901023358 | 81 | 5 | 0.0 | 0.9 | 0.00 | 0.00 | 0.00 | 78 | 1018.2 |
| 20260901023131 | 81 | 5 | 0.0 | 0.9 | 0.00 | 0.00 | 0.00 | 78 | 1018.1 |
| 20260901023100 | 81 | 5 | 0.0 | 0.9 | 0.00 | 0.00 | 0.00 | 78 | 1018.2 |
| 20260901022927 | 81 | 5 | 0.0 | 0.9 | 0.00 | 0.00 | 0.00 | 78 | 1018.2 |
| 20260901022833 | 81 | 5 | 0.0 | 0.9 | 0.00 | 0.00 | 0.00 | 78 | 1018.2 |
| 20260901022722 | 81 | 5 | 0.0 | 0.9 | 0.00 | 0.00 | 0.00 | 78 | 1018.1 |
| 20260901022654 | 81 | 5 | 0.0 | 0.9 | 0.00 | 0.00 | 0.00 | 77 | 1018.2 |
| 20260901022521 | 81 | 5 | 0.0 | 0.9 | 0.00 | 0.00 | 0.00 | 77 | 1018.1 |
| 20260901022428 | 81 | 259 | 0.0 | 0.9 | 0.00 | 0.00 | 0.00 | 77 | 1018.1 |
| 20260901022336 | 81 | 259 | 0.0 | 0.0 | 0.00 | 0.00 | 0.00 | 77 | 1018.1 |
| 20260901022242 | 81 | 259 | 0.0 | 0.0 | 0.00 | 0.00 | 0.00 | 77 | 1018.1 |
| 20260901022129 | 81 | 259 | 0.0 | 0.9 | 0.00 | 0.00 | 0.00 | 77 | 1018.1 |
| 20260901022041 | 81 | 259 | 0.0 | 0.9 | 0.00 | 0.00 | 0.00 | 77 | 1018.0 |
| 20260901021949 | 82 | 259 | 0.0 | 0.9 | 0.00 | 0.00 | 0.00 | 77 | 1018.1 |
| 20260901021858 | 82 | 259 | 0.0 | 1.7 | 0.00 | 0.00 | 0.00 | 76 | 1018.1 |
| 20260901021632 | 82 | 259 | 0.0 | 1.7 | 0.00 | 0.00 | 0.00 | 76 | 1018.1 |
| 20260901021539 | 82 | 259 | 0.0 | 1.7 | 0.00 | 0.00 | 0.00 | 76 | 1018.1 |
| 20260901021431 | 82 | 259 | 0.0 | 1.7 | 0.00 | 0.00 | 0.00 | 76 | 1018.1 |
| 20260901021339 | 82 | 259 | 0.0 | 1.7 | 0.00 | 0.00 | 0.00 | 75 | 1018.1 |
| 20260901021246 | 82 | 259 | 0.0 | 1.7 | 0.00 | 0.00 | 0.00 | 75 | 1018.0 |
| 20260901021133 | 82 | 259 | 0.9 | 1.7 | 0.00 | 0.00 | 0.00 | 75 | 1018.0 |
| 20260901021021 | 82 | 259 | 0.9 | 1.7 | 0.00 | 0.00 | 0.00 | 75 | 1018.0 |
| 20260901020948 | 82 | 259 | 0.9 | 1.7 | 0.00 | 0.00 | 0.00 | 74 | 1018.1 |
| 20260901020856 | 82 | 259 | 0.9 | 1.7 | 0.00 | 0.00 | 0.00 | 75 | 1018.1 |
| 20260901020727 | 82 | 259 | 0.9 | 1.7 | 0.00 | 0.00 | 0.00 | 75 | 1018.0 |
| 20260901020635 | 82 | 259 | 0.9 | 1.7 | 0.00 | 0.00 | 0.00 | 74 | 1018.0 |
| 20260901020523 | 82 | 259 | 0.9 | 1.7 | 0.00 | 0.00 | 0.00 | 75 | 1018.0 |
| 20260901020430 | 83 | 259 | 0.0 | 0.9 | 0.00 | 0.00 | 0.00 | 75 | 1018.0 |
| 20260901020403 | 83 | 259 | 0.0 | 0.9 | 0.00 | 0.00 | 0.00 | 74 | 1018.0 |
| 20260901020136 | 83 | 259 | 0.0 | 0.9 | 0.00 | 0.00 | 0.00 | 74 | 1018.0 |
| 20260901020043 | 83 | 259 | 0.0 | 0.9 | 0.00 | 0.00 | 0.00 | 75 | 1018.0 |
| 20260901015930 | 83 | 259 | 0.0 | 0.0 | 0.00 | 0.00 | 0.00 | 75 | 1018.0 |
| 20260901015838 | 83 | 259 | 0.0 | 0.0 | 0.00 | 0.00 | 0.00 | 75 | 1017.9 |
| 20260901015745 | 83 | 259 | 0.0 | 0.0 | 0.00 | 0.00 | 0.00 | 75 | 1017.9 |
| 20260901015632 | 83 | 259 | 0.0 | 0.0 | 0.00 | 0.00 | 0.00 | 74 | 1017.9 |
| 20260901015523 | 83 | 259 | 0.0 | 0.0 | 0.00 | 0.00 | 0.00 | 74 | 1017.9 |
| 20260901015430 | 83 | 259 | 0.0 | 0.0 | 0.00 | 0.00 | 0.00 | 74 | 1017.9 |
| 20260901015358 | 83 | 259 | 0.0 | 0.0 | 0.00 | 0.00 | 0.00 | 74 | 1017.9 |
| 20260901015225 | 83 | 259 | 0.0 | 0.0 | 0.00 | 0.00 | 0.00 | 74 | 1017.9 |
| 20260901015132 | 83 | 259 | 0.0 | 0.0 | 0.00 | 0.00 | 0.00 | 74 | 1017.9 |
| 20260901015058 | 83 | 259 | 0.0 | 0.0 | 0.00 | 0.00 | 0.00 | 74 | 1017.9 |
| 20260901014949 | 83 | 259 | 0.0 | 0.0 | 0.00 | 0.00 | 0.00 | 73 | 1017.9 |
| 20260901014857 | 83 | 259 | 0.0 | 0.0 | 0.00 | 0.00 | 0.00 | 73 | 1017.9 |
| 20260901014632 | 84 | 259 | 0.0 | 0.0 | 0.00 | 0.00 | 0.00 | 73 | 1017.8 |
| 20260901014539 | 84 | 259 | 0.0 | 0.0 | 0.00 | 0.00 | 0.00 | 73 | 1017.8 |
| 20260901014428 | 84 | 259 | 0.0 | 0.9 | 0.00 | 0.00 | 0.00 | 73 | 1017.8 |
| 20260901014338 | 84 | 259 | 0.0 | 0.9 | 0.00 | 0.00 | 0.00 | 73 | 1017.7 |
| 20260901014247 | 84 | 259 | 0.0 | 1.7 | 0.00 | 0.00 | 0.00 | 72 | 1017.7 |
| 20260901014133 | 84 | 259 | 0.0 | 1.7 | 0.00 | 0.00 | 0.00 | 72 | 1017.8 |
| 20260901014021 | 84 | 259 | 0.0 | 1.7 | 0.00 | 0.00 | 0.00 | 72 | 1017.8 |
| 20260901013949 | 84 | 259 | 0.0 | 1.7 | 0.00 | 0.00 | 0.00 | 72 | 1017.7 |
| 20260901013856 | 84 | 259 | 0.0 | 1.7 | 0.00 | 0.00 | 0.00 | 72 | 1017.8 |
| 20260901013727 | 84 | 259 | 0.0 | 1.7 | 0.00 | 0.00 | 0.00 | 72 | 1017.9 |
| 20260901013635 | 84 | 259 | 0.0 | 1.7 | 0.00 | 0.00 | 0.00 | 72 | 1017.8 |
| 20260901013522 | 84 | 259 | 0.9 | 1.7 | 0.00 | 0.00 | 0.00 | 72 | 1017.8 |
| 20260901013429 | 84 | 259 | 0.9 | 1.7 | 0.00 | 0.00 | 0.00 | 72 | 1017.9 |
| 20260901013400 | 85 | 259 | 0.9 | 1.7 | 0.00 | 0.00 | 0.00 | 71 | 1017.9 |
| 20260901013137 | 85 | 259 | 0.0 | 0.9 | 0.00 | 0.00 | 0.00 | 71 | 1017.8 |
| 20260901013025 | 85 | 259 | 0.0 | 0.0 | 0.00 | 0.00 | 0.00 | 71 | 1017.8 |
| 20260901012933 | 85 | 259 | 0.0 | 0.0 | 0.00 | 0.00 | 0.00 | 70 | 1017.8 |
| 20260901012820 | 85 | 259 | 0.0 | 0.0 | 0.00 | 0.00 | 0.00 | 70 | 1017.8 |
| 20260901012728 | 85 | 259 | 0.0 | 0.9 | 0.00 | 0.00 | 0.00 | 70 | 1017.8 |
| 20260901012656 | 85 | 259 | 0.0 | 0.9 | 0.00 | 0.00 | 0.00 | 70 | 1017.7 |
| 20260901012527 | 85 | 259 | 0.0 | 0.9 | 0.00 | 0.00 | 0.00 | 70 | 1017.7 |
| 20260901012434 | 85 | 259 | 0.0 | 0.9 | 0.00 | 0.00 | 0.00 | 69 | 1017.7 |
| 20260901012323 | 85 | 259 | 0.0 | 0.9 | 0.00 | 0.00 | 0.00 | 69 | 1017.8 |
| 20260901012231 | 85 | 259 | 0.0 | 0.9 | 0.00 | 0.00 | 0.00 | 69 | 1017.7 |
| 20260901012138 | 85 | 259 | 0.0 | 0.9 | 0.00 | 0.00 | 0.00 | 69 | 1017.7 |
| 20260901012030 | 85 | 259 | 0.0 | 0.9 | 0.00 | 0.00 | 0.00 | 69 | 1017.7 |
| 20260901011938 | 85 | 259 | 0.0 | 0.9 | 0.00 | 0.00 | 0.00 | 69 | 1017.6 |
| 20260901011909 | 86 | 259 | 0.0 | 0.9 | 0.00 | 0.00 | 0.00 | 69 | 1017.6 |
| 20260901011623 | 86 | 259 | 0.0 | 0.9 | 0.00 | 0.00 | 0.00 | 69 | 1017.7 |
| 20260901011535 | 86 | 259 | 0.0 | 0.9 | 0.00 | 0.00 | 0.00 | 68 | 1017.6 |
| 20260901011422 | 86 | 259 | 0.0 | 0.9 | 0.00 | 0.00 | 0.00 | 68 | 1017.7 |
| 20260901011329 | 86 | 259 | 0.0 | 0.9 | 0.00 | 0.00 | 0.00 | 68 | 1017.7 |
| 20260901011237 | 86 | 259 | 0.0 | 0.9 | 0.00 | 0.00 | 0.00 | 68 | 1017.6 |
| 20260901011143 | 86 | 259 | 0.0 | 0.9 | 0.00 | 0.00 | 0.00 | 68 | 1017.6 |
| 20260901011031 | 86 | 259 | 0.0 | 0.9 | 0.00 | 0.00 | 0.00 | 68 | 1017.6 |
| 20260901010922 | 86 | 259 | 0.0 | 0.9 | 0.00 | 0.00 | 0.00 | 68 | 1017.6 |
| 20260901010850 | 86 | 259 | 0.0 | 0.9 | 0.00 | 0.00 | 0.00 | 68 | 1017.6 |
| 20260901010737 | 86 | 259 | 0.0 | 1.7 | 0.00 | 0.00 | 0.00 | 67 | 1017.6 |
| 20260901010623 | 86 | 259 | 0.0 | 1.7 | 0.00 | 0.00 | 0.00 | 67 | 1017.6 |
| 20260901010550 | 87 | 259 | 0.0 | 2.6 | 0.00 | 0.00 | 0.00 | 67 | 1017.6 |
| 20260901010437 | 87 | 259 | 0.0 | 2.6 | 0.00 | 0.00 | 0.00 | 67 | 1017.6 |
| 20260901010412 | 87 | 259 | 0.9 | 2.6 | 0.00 | 0.00 | 0.00 | 67 | 1017.6 |
| 20260901010147 | 87 | 259 | 0.9 | 2.6 | 0.00 | 0.00 | 0.00 | 67 | 1017.6 |
| 20260901010033 | 87 | 259 | 0.9 | 2.6 | 0.00 | 0.00 | 0.00 | 67 | 1017.6 |
| 20260901005940 | 87 | 259 | 0.9 | 2.6 | 0.00 | 0.00 | 0.00 | 66 | 1017.6 |
| 20260901005828 | 87 | 259 | 0.9 | 4.3 | 0.00 | 0.00 | 0.00 | 66 | 1017.5 |
| 20260901005755 | 87 | 259 | 0.9 | 4.3 | 0.00 | 0.00 | 0.00 | 66 | 1017.6 |
| 20260901005626 | 87 | 212 | 0.9 | 4.3 | 0.00 | 0.00 | 0.00 | 65 | 1017.5 |
| 20260901005533 | 87 | 212 | 1.7 | 4.3 | 0.00 | 0.00 | 0.00 | 65 | 1017.6 |
| 20260901005501 | 87 | 208 | 1.7 | 4.3 | 0.00 | 0.00 | 0.00 | 65 | 1017.4 |
| 20260901005327 | 87 | 198 | 1.7 | 4.3 | 0.00 | 0.00 | 0.00 | 65 | 1017.4 |
| 20260901005235 | 87 | 213 | 1.7 | 4.3 | 0.00 | 0.00 | 0.00 | 65 | 1017.4 |
| 20260901005127 | 87 | 200 | 2.6 | 4.3 | 0.00 | 0.00 | 0.00 | 65 | 1017.3 |
| 20260901005054 | 87 | 215 | 2.6 | 4.3 | 0.00 | 0.00 | 0.00 | 65 | 1017.4 |
| 20260901004940 | 87 | 211 | 2.6 | 3.5 | 0.00 | 0.00 | 0.00 | 65 | 1017.3 |
| 20260901004910 | 87 | 189 | 2.6 | 3.5 | 0.00 | 0.00 | 0.00 | 65 | 1017.3 |
| 20260901004623 | 87 | 207 | 1.7 | 3.5 | 0.00 | 0.00 | 0.00 | 64 | 1017.2 |
| 20260901004536 | 87 | 198 | 1.7 | 3.5 | 0.00 | 0.00 | 0.00 | 64 | 1017.2 |
| 20260901004443 | 87 | 223 | 0.9 | 3.5 | 0.00 | 0.00 | 0.00 | 64 | 1017.2 |
| 20260901004330 | 88 | 238 | 1.7 | 3.5 | 0.00 | 0.00 | 0.00 | 64 | 1017.3 |
| 20260901004238 | 88 | 246 | 1.7 | 3.5 | 0.00 | 0.00 | 0.00 | 64 | 1017.2 |
| 20260901004125 | 88 | 209 | 1.7 | 3.5 | 0.00 | 0.00 | 0.00 | 64 | 1017.2 |
| 20260901004032 | 88 | 216 | 1.7 | 4.3 | 0.00 | 0.00 | 0.00 | 64 | 1017.2 |
| 20260901003923 | 88 | 205 | 1.7 | 4.3 | 0.00 | 0.00 | 0.00 | 64 | 1017.3 |
| 20260901003831 | 88 | 207 | 1.7 | 4.3 | 0.00 | 0.00 | 0.00 | 64 | 1017.2 |
| 20260901003800 | 88 | 213 | 1.7 | 4.3 | 0.00 | 0.00 | 0.00 | 63 | 1017.1 |
| 20260901003625 | 88 | 196 | 2.6 | 4.3 | 0.00 | 0.00 | 0.00 | 63 | 1017.1 |
| 20260901003532 | 88 | 214 | 2.6 | 4.3 | 0.00 | 0.00 | 0.00 | 63 | 1017.1 |
| 20260901003459 | 88 | 205 | 2.6 | 4.3 | 0.00 | 0.00 | 0.00 | 63 | 1017.2 |
| 20260901003411 | 88 | 223 | 2.6 | 4.3 | 0.00 | 0.00 | 0.00 | 63 | 1017.2 |
| 20260901003124 | 88 | 194 | 2.6 | 4.3 | 0.00 | 0.00 | 0.00 | 63 | 1017.1 |
| 20260901003031 | 88 | 201 | 2.6 | 5.2 | 0.00 | 0.00 | 0.00 | 63 | 1017.1 |
| 20260901002939 | 88 | 216 | 2.6 | 5.2 | 0.00 | 0.00 | 0.00 | 63 | 1017.1 |
| 20260901002827 | 88 | 205 | 3.5 | 5.2 | 0.00 | 0.00 | 0.00 | 63 | 1017.2 |
| 20260901002738 | 88 | 203 | 3.5 | 5.2 | 0.00 | 0.00 | 0.00 | 62 | 1017.2 |
| 20260901002626 | 88 | 196 | 2.6 | 5.2 | 0.00 | 0.00 | 0.00 | 63 | 1017.2 |
| 20260901002534 | 88 | 185 | 3.5 | 5.2 | 0.00 | 0.00 | 0.00 | 62 | 1017.2 |
| 20260901002421 | 88 | 213 | 3.5 | 5.2 | 0.00 | 0.00 | 0.00 | 62 | 1017.2 |
| 20260901002328 | 88 | 201 | 3.5 | 5.2 | 0.00 | 0.00 | 0.00 | 62 | 1017.2 |
| 20260901002235 | 88 | 209 | 3.5 | 5.2 | 0.00 | 0.00 | 0.00 | 62 | 1017.2 |
| 20260901002127 | 88 | 209 | 4.3 | 5.2 | 0.00 | 0.00 | 0.00 | 62 | 1017.1 |
| 20260901002036 | 88 | 192 | 3.5 | 5.2 | 0.00 | 0.00 | 0.00 | 62 | 1017.1 |
| 20260901001942 | 89 | 217 | 2.6 | 4.3 | 0.00 | 0.00 | 0.00 | 62 | 1017.2 |
| 20260901001913 | 89 | 194 | 2.6 | 4.3 | 0.00 | 0.00 | 0.00 | 62 | 1017.2 |
| 20260901001630 | 89 | 203 | 3.5 | 4.3 | 0.00 | 0.00 | 0.00 | 62 | 1017.1 |
| 20260901001556 | 89 | 190 | 3.5 | 4.3 | 0.00 | 0.00 | 0.00 | 62 | 1017.2 |
| 20260901001422 | 89 | 210 | 2.6 | 4.3 | 0.00 | 0.00 | 0.00 | 62 | 1017.2 |
| 20260901001330 | 89 | 184 | 3.5 | 5.2 | 0.00 | 0.00 | 0.00 | 62 | 1017.2 |
| 20260901001237 | 89 | 182 | 3.5 | 5.2 | 0.00 | 0.00 | 0.00 | 62 | 1017.2 |
| 20260901001124 | 89 | 209 | 2.6 | 5.2 | 0.00 | 0.00 | 0.00 | 61 | 1017.2 |
| 20260901001037 | 89 | 203 | 2.6 | 5.2 | 0.00 | 0.00 | 0.00 | 61 | 1017.2 |
| 20260901000925 | 89 | 190 | 2.6 | 5.2 | 0.00 | 0.00 | 0.00 | 61 | 1017.1 |
| 20260901000834 | 89 | 198 | 2.6 | 5.2 | 0.00 | 0.00 | 0.00 | 61 | 1017.1 |
| 20260901000741 | 89 | 196 | 3.5 | 5.2 | 0.00 | 0.00 | 0.00 | 61 | 1017.2 |
| 20260901000628 | 89 | 207 | 3.5 | 5.2 | 0.00 | 0.00 | 0.00 | 61 | 1017.2 |
| 20260901000535 | 89 | 207 | 3.5 | 5.2 | 0.00 | 0.00 | 0.00 | 61 | 1017.2 |
| 20260901000428 | 89 | 212 | 2.6 | 5.2 | 0.00 | 0.00 | 0.00 | 61 | 1017.2 |
| 20260901000358 | 89 | 200 | 2.6 | 5.2 | 0.00 | 0.00 | 0.00 | 61 | 1017.2 |
| 20260901000150 | 89 | 194 | 2.6 | 5.2 | 0.00 | 0.00 | 0.00 | 61 | 1017.2 |
| 20260901000037 | 89 | 190 | 1.7 | 5.2 | 0.00 | 0.00 | 0.00 | 61 | 1017.2 |
| 20260831235929 | 89 | 186 | 1.7 | 7.0 | 0.00 | 0.00 | 0.00 | 61 | 1017.2 |
| 20260831235836 | 90 | 203 | 1.7 | 7.0 | 0.00 | 0.00 | 0.00 | 61 | 1017.2 |
| 20260831235745 | 90 | 247 | 3.5 | 7.0 | 0.00 | 0.00 | 0.00 | 61 | 1017.2 |
| 20260831235631 | 90 | 192 | 3.5 | 7.0 | 0.00 | 0.00 | 0.00 | 61 | 1017.1 |
| 20260831235539 | 90 | 213 | 3.5 | 7.0 | 0.00 | 0.00 | 0.00 | 61 | 1017.2 |
| 20260831235426 | 90 | 197 | 2.6 | 7.0 | 0.00 | 0.00 | 0.00 | 61 | 1017.1 |
| 20260831235337 | 90 | 201 | 3.5 | 7.0 | 0.00 | 0.00 | 0.00 | 60 | 1017.2 |
| 20260831235224 | 90 | 183 | 4.3 | 7.0 | 0.00 | 0.00 | 0.00 | 60 | 1017.2 |
| 20260831235152 | 90 | 195 | 4.3 | 7.0 | 0.00 | 0.00 | 0.00 | 60 | 1017.2 |
| 20260831235039 | 90 | 196 | 3.5 | 6.1 | 0.00 | 0.00 | 0.00 | 61 | 1017.3 |
| 20260831234926 | 90 | 210 | 2.6 | 4.3 | 0.00 | 0.00 | 0.00 | 60 | 1017.3 |
| 20260831234900 | 90 | 207 | 3.5 | 4.3 | 0.00 | 0.00 | 0.00 | 60 | 1017.3 |
| 20260831234654 | 90 | 202 | 3.5 | 4.3 | 0.00 | 0.00 | 0.00 | 60 | 1017.2 |
| 20260831234521 | 90 | 202 | 2.6 | 6.1 | 0.00 | 0.00 | 0.00 | 60 | 1017.2 |
| 20260831234428 | 91 | 207 | 2.6 | 6.1 | 0.00 | 0.00 | 0.00 | 60 | 1017.2 |
| 20260831234335 | 91 | 200 | 3.5 | 6.1 | 0.00 | 0.00 | 0.00 | 60 | 1017.2 |
| 20260831234222 | 91 | 180 | 2.6 | 6.1 | 0.00 | 0.00 | 0.00 | 60 | 1017.1 |
| 20260831234132 | 91 | 192 | 2.6 | 6.1 | 0.00 | 0.00 | 0.00 | 59 | 1017.3 |
| 20260831234040 | 91 | 207 | 2.6 | 6.1 | 0.00 | 0.00 | 0.00 | 59 | 1017.2 |
| 20260831233927 | 91 | 174 | 3.5 | 6.1 | 0.00 | 0.00 | 0.00 | 59 | 1017.3 |
| 20260831233855 | 91 | 196 | 3.5 | 6.1 | 0.00 | 0.00 | 0.00 | 58 | 1017.2 |
| 20260831233723 | 91 | 178 | 3.5 | 6.1 | 0.00 | 0.00 | 0.00 | 58 | 1017.2 |
| 20260831233631 | 91 | 198 | 3.5 | 6.1 | 0.00 | 0.00 | 0.00 | 58 | 1017.2 |
| 20260831233523 | 91 | 179 | 3.5 | 6.1 | 0.00 | 0.00 | 0.00 | 58 | 1017.2 |
| 20260831233430 | 91 | 153 | 3.5 | 6.1 | 0.00 | 0.00 | 0.00 | 57 | 1017.2 |
| 20260831233402 | 91 | 147 | 3.5 | 6.1 | 0.00 | 0.00 | 0.00 | 57 | 1017.2 |
| 20260831233134 | 91 | 190 | 3.5 | 6.1 | 0.00 | 0.00 | 0.00 | 57 | 1017.2 |
| 20260831233026 | 91 | 184 | 3.5 | 6.1 | 0.00 | 0.00 | 0.00 | 57 | 1017.2 |
| 20260831232934 | 91 | 186 | 2.6 | 6.1 | 0.00 | 0.00 | 0.00 | 57 | 1017.2 |
| 20260831232821 | 91 | 188 | 1.7 | 4.3 | 0.00 | 0.00 | 0.00 | 57 | 1017.2 |
| 20260831232748 | 91 | 220 | 1.7 | 5.2 | 0.00 | 0.00 | 0.00 | 57 | 1017.3 |
| 20260831232635 | 91 | 132 | 2.6 | 5.2 | 0.00 | 0.00 | 0.00 | 56 | 1017.2 |
| 20260831232522 | 91 | 152 | 2.6 | 5.2 | 0.00 | 0.00 | 0.00 | 57 | 1017.3 |
| 20260831232434 | 91 | 188 | 2.6 | 7.0 | 0.00 | 0.00 | 0.00 | 56 | 1017.2 |
| 20260831232321 | 91 | 156 | 1.7 | 7.0 | 0.00 | 0.00 | 0.00 | 58 | 1017.2 |
| 20260831232250 | 91 | 154 | 1.7 | 7.0 | 0.00 | 0.00 | 0.00 | 57 | 1017.2 |
| 20260831232136 | 92 | 142 | 2.6 | 7.0 | 0.00 | 0.00 | 0.00 | 57 | 1017.3 |
| 20260831232024 | 92 | 189 | 3.5 | 7.0 | 0.00 | 0.00 | 0.00 | 57 | 1017.2 |
| 20260831231931 | 92 | 173 | 4.3 | 7.0 | 0.00 | 0.00 | 0.00 | 57 | 1017.2 |
| 20260831231904 | 92 | 227 | 4.3 | 7.0 | 0.00 | 0.00 | 0.00 | 57 | 1017.2 |